Observation data for Amarillo 9 North Northeast on 11/09/2019      Previous  Date       Current Mesonet Observations  Soil Data  Daily Summary Page  Observations in Plain Language
KAM2 090600Z 15003KT 03/02 A3026 RMK A01 T00310023  RH  094%=      5-min Rain = 0
KAM2 090601Z 16003KT 03/02 A3026 RMK A01 T00310022  RH  094%=      5-min Rain = 0
KAM2 090602Z 16003KT 03/02 A3026 RMK A01 T00310023  RH  094%=      5-min Rain = 0
KAM2 090603Z 15002KT 03/02 A3026 RMK A01 T00310023  RH  094%=      5-min Rain = 0
KAM2 090604Z 16002KT 03/02 A3026 RMK A01 T00300022  RH  094%=      5-min Rain = 0
KAM2 090605Z 15001KT 03/02 A3026 RMK A01 T00280019  RH  093%=      5-min Rain = 0
KAM2 090606Z 16001KT 03/02 A3026 RMK A01 T00280019  RH  094%=      5-min Rain = 0
KAM2 090607Z 16001KT 03/02 A3026 RMK A01 T00280020  RH  095%=      5-min Rain = 0
KAM2 090608Z 15001KT 03/02 A3026 RMK A01 T00280022  RH  096%=      5-min Rain = 0
KAM2 090609Z 16001KT 03/02 A3026 RMK A01 T00290023  RH  096%=      5-min Rain = 0
KAM2 090610Z 16001KT 03/03 A3026 RMK A01 T00300025  RH  096%=      5-min Rain = 0
KAM2 090611Z 16000KT 03/03 A3026 RMK A01 T00300025  RH  096%=      5-min Rain = 0
KAM2 090612Z 00000KT 03/02 A3026 RMK A01 T00270021  RH  095%=      5-min Rain = 0
KAM2 090613Z 00000KT 03/02 A3026 RMK A01 T00260019  RH  095%=      5-min Rain = 0
KAM2 090614Z 00000KT 03/02 A3026 RMK A01 T00250019  RH  096%=      5-min Rain = 0
KAM2 090615Z 35001KT 03/02 A3026 RMK A01 T00260021  RH  096%=      5-min Rain = 0
KAM2 090616Z 35001KT 03/02 A3026 RMK A01 T00270022  RH  097%=      5-min Rain = 0
KAM2 090617Z 35001KT 03/02 A3026 RMK A01 T00270023  RH  097%=      5-min Rain = 0
KAM2 090618Z 35001KT 03/02 A3026 RMK A01 T00280024  RH  097%=      5-min Rain = 0
KAM2 090619Z 34001KT 03/02 A3026 RMK A01 T00280024  RH  097%=      5-min Rain = 0
KAM2 090620Z 33000KT 03/02 A3026 RMK A01 T00270023  RH  097%=      5-min Rain = 0
KAM2 090621Z 34000KT 03/02 A3026 RMK A01 T00270023  RH  097%=      5-min Rain = 0
KAM2 090622Z 35001KT 03/02 A3026 RMK A01 T00280024  RH  097%=      5-min Rain = 0
KAM2 090623Z 01002KT 03/02 A3026 RMK A01 T00280024  RH  097%=      5-min Rain = 0
KAM2 090624Z 01001KT 03/02 A3026 RMK A01 T00280024  RH  097%=      5-min Rain = 0
KAM2 090625Z 01002KT 03/02 A3026 RMK A01 T00280024  RH  097%=      5-min Rain = 0
KAM2 090626Z 01002KT 03/02 A3026 RMK A01 T00280024  RH  097%=      5-min Rain = 0
KAM2 090627Z 01001KT 03/02 A3026 RMK A01 T00270024  RH  097%=      5-min Rain = 0
KAM2 090628Z 01002KT 03/02 A3026 RMK A01 T00270024  RH  098%=      5-min Rain = 0
KAM2 090629Z 00002KT 03/02 A3026 RMK A01 T00270024  RH  098%=      5-min Rain = 0
KAM2 090630Z 00002KT 03/02 A3026 RMK A01 T00270023  RH  098%=      5-min Rain = 0
KAM2 090631Z 00002KT 02/02 A3026 RMK A01 T00240020  RH  097%=      5-min Rain = 0
KAM2 090632Z 00002KT 02/02 A3026 RMK A01 T00220016  RH  096%=      5-min Rain = 0
KAM2 090633Z 00001KT 02/02 A3026 RMK A01 T00200015  RH  096%=      5-min Rain = 0
KAM2 090634Z 00001KT 02/01 A3026 RMK A01 T00190014  RH  096%=      5-min Rain = 0
KAM2 090635Z 00000KT 02/02 A3026 RMK A01 T00190015  RH  097%=      5-min Rain = 0
KAM2 090636Z 00000KT 02/02 A3026 RMK A01 T00200016  RH  097%=      5-min Rain = 0
KAM2 090637Z 00000KT 02/02 A3026 RMK A01 T00190015  RH  097%=      5-min Rain = 0
KAM2 090638Z 00000KT 02/02 A3026 RMK A01 T00190016  RH  098%=      5-min Rain = 0
KAM2 090639Z 00000KT 02/02 A3027 RMK A01 T00220019  RH  098%=      5-min Rain = 0
KAM2 090640Z 00000KT 02/02 A3027 RMK A01 T00240022  RH  099%=      5-min Rain = 0
KAM2 090641Z 00000KT 02/02 A3027 RMK A01 T00240022  RH  099%=      5-min Rain = 0
KAM2 090642Z 00000KT 02/02 A3027 RMK A01 T00230021  RH  098%=      5-min Rain = 0
KAM2 090643Z 00000KT 02/02 A3027 RMK A01 T00220019  RH  098%=      5-min Rain = 0
KAM2 090644Z 00000KT 02/02 A3027 RMK A01 T00210019  RH  098%=      5-min Rain = 0
KAM2 090645Z 00000KT 02/02 A3027 RMK A01 T00210018  RH  098%=      5-min Rain = 0
KAM2 090646Z 35000KT 02/02 A3027 RMK A01 T00190016  RH  098%=      5-min Rain = 0
KAM2 090647Z 00000KT 01/01 A3027 RMK A01 T00140010  RH  097%=      5-min Rain = 0
KAM2 090648Z 00000KT 01/01 A3027 RMK A01 T00110005  RH  096%=      5-min Rain = 0
KAM2 090649Z 00000KT 01/00 A3027 RMK A01 T00100004  RH  096%=      5-min Rain = 0
KAM2 090650Z 00000KT 01/01 A3027 RMK A01 T00100005  RH  097%=      5-min Rain = 0
KAM2 090651Z 00000KT 01/01 A3027 RMK A01 T00100006  RH  097%=      5-min Rain = 0
KAM2 090652Z 00000KT 01/01 A3027 RMK A01 T00100006  RH  097%=      5-min Rain = 0
KAM2 090653Z 00000KT 01/01 A3027 RMK A01 T00090005  RH  097%=      5-min Rain = 0
KAM2 090654Z 00000KT 01/00 A3027 RMK A01 T00080004  RH  097%=      5-min Rain = 0
KAM2 090655Z 00000KT 01/00 A3027 RMK A01 T00070003  RH  097%=      5-min Rain = 0
KAM2 090656Z 00000KT 01/00 A3027 RMK A01 T00050001  RH  097%=      5-min Rain = 0
KAM2 090657Z 00000KT 00/M00 A3027 RMK A01 T00031001  RH  097%=      5-min Rain = 0
KAM2 090658Z 14000KT 00/M00 A3027 RMK A01 T00021002  RH  097%=      5-min Rain = 0
KAM2 090659Z 14001KT 00/M00 A3027 RMK A01 T00021002  RH  097%=      5-min Rain = 0
KAM2 090700Z 14001KT 00/00 A3027 RMK A01 T00030000  RH  098%=      5-min Rain = 0
KAM2 090701Z 15001KT 01/00 A3027 RMK A01 T00060003  RH  098%=      5-min Rain = 0
KAM2 090702Z 16001KT 01/00 A3027 RMK A01 T00060004  RH  098%=      5-min Rain = 0
KAM2 090703Z 16001KT 01/00 A3027 RMK A01 T00060004  RH  098%=      5-min Rain = 0
KAM2 090704Z 17000KT 01/00 A3027 RMK A01 T00050003  RH  098%=      5-min Rain = 0
KAM2 090705Z 18001KT 00/00 A3027 RMK A01 T000300-0  RH  098%=      5-min Rain = 0
KAM2 090706Z 19000KT 00/M00 A3027 RMK A01 T00021002  RH  098%=      5-min Rain = 0
KAM2 090707Z 00000KT 00/00 A3027 RMK A01 T000000-3  RH  097%=      5-min Rain = 0
KAM2 090708Z 00000KT M00/M01 A3027 RMK A01 T10011005  RH  097%=      5-min Rain = 0
KAM2 090709Z 17001KT M00/M01 A3027 RMK A01 T10021006  RH  097%=      5-min Rain = 0
KAM2 090710Z 16001KT M00/M01 A3026 RMK A01 T10021006  RH  097%=      5-min Rain = 0
KAM2 090711Z 16002KT M00/M01 A3026 RMK A01 T10021005  RH  098%=      5-min Rain = 0
KAM2 090712Z 17002KT 00/00 A3026 RMK A01 T00-000-3  RH  098%=      5-min Rain = 0
KAM2 090713Z 18002KT 00/00 A3026 RMK A01 T00-000-3  RH  098%=      5-min Rain = 0
KAM2 090714Z 19002KT 00/00 A3026 RMK A01 T00020000  RH  099%=      5-min Rain = 0
KAM2 090715Z 18002KT 00/00 A3026 RMK A01 T00030000  RH  099%=      5-min Rain = 0
KAM2 090721Z 17001KT 00/M00 A3026 RMK A01 T00021001  RH  099%=      5-min Rain = 0
KAM2 090722Z 17001KT 00/00 A3026 RMK A01 T000200-0  RH  098%=      5-min Rain = 0
KAM2 090723Z 17001KT 00/00 A3026 RMK A01 T000200-0  RH  098%=      5-min Rain = 0
KAM2 090724Z 18001KT 00/00 A3026 RMK A01 T000200-0  RH  099%=      5-min Rain = 0
KAM2 090725Z 18001KT 00/00 A3026 RMK A01 T00020000  RH  099%=      5-min Rain = 0
KAM2 090726Z 17001KT 00/00 A3026 RMK A01 T00020000  RH  099%=      5-min Rain = 0
KAM2 090727Z 16001KT 00/M00 A3026 RMK A01 T00011002  RH  098%=      5-min Rain = 0
KAM2 090728Z 17002KT 00/00 A3026 RMK A01 T00-000-3  RH  098%=      5-min Rain = 0
KAM2 090729Z 17002KT M00/M00 A3026 RMK A01 T10011004  RH  098%=      5-min Rain = 0
KAM2 090730Z 17003KT M00/M01 A3026 RMK A01 T10031006  RH  098%=      5-min Rain = 0
KAM2 090731Z 18003KT M00/M01 A3026 RMK A01 T10041007  RH  098%=      5-min Rain = 0
KAM2 090732Z 18004KT M00/M01 A3026 RMK A01 T10041008  RH  098%=      5-min Rain = 0
KAM2 090733Z 18004KT M01/M01 A3026 RMK A01 T10061009  RH  098%=      5-min Rain = 0
KAM2 090734Z 19003KT M01/M01 A3026 RMK A01 T10071011  RH  097%=      5-min Rain = 0
KAM2 090735Z 18004KT M01/M01 A3026 RMK A01 T10081011  RH  097%=      5-min Rain = 0
KAM2 090736Z 19003KT M01/M01 A3026 RMK A01 T10081011  RH  098%=      5-min Rain = 0
KAM2 090737Z 19004KT M01/M01 A3026 RMK A01 T10081011  RH  098%=      5-min Rain = 0
KAM2 090738Z 19004KT M01/M01 A3026 RMK A01 T10081011  RH  098%=      5-min Rain = 0
KAM2 090739Z 20003KT M01/M01 A3026 RMK A01 T10081011  RH  098%=      5-min Rain = 0
KAM2 090740Z 20004KT M01/M01 A3026 RMK A01 T10081011  RH  098%=      5-min Rain = 0
KAM2 090741Z 20004KT M01/M01 A3026 RMK A01 T10081011  RH  098%=      5-min Rain = 0
KAM2 090742Z 20003KT M01/M01 A3026 RMK A01 T10081010  RH  098%=      5-min Rain = 0
KAM2 090743Z 20004KT M01/M01 A3026 RMK A01 T10071010  RH  098%=      5-min Rain = 0
KAM2 090744Z 20004KT M01/M01 A3026 RMK A01 T10071009  RH  098%=      5-min Rain = 0
KAM2 090745Z 20004KT M01/M01 A3026 RMK A01 T10061009  RH  098%=      5-min Rain = 0
KAM2 090746Z 19004KT M01/M01 A3026 RMK A01 T10061008  RH  099%=      5-min Rain = 0
KAM2 090747Z 19004KT M01/M01 A3026 RMK A01 T10051007  RH  099%=      5-min Rain = 0
KAM2 090748Z 19004KT M01/M01 A3026 RMK A01 T10051007  RH  099%=      5-min Rain = 0
KAM2 090749Z 19004KT M00/M01 A3026 RMK A01 T10041006  RH  099%=      5-min Rain = 0
KAM2 090750Z 19004KT M00/M01 A3026 RMK A01 T10031005  RH  099%=      5-min Rain = 0
KAM2 090751Z 19004KT M00/M01 A3025 RMK A01 T10031005  RH  099%=      5-min Rain = 0
KAM2 090752Z 19004KT M00/M01 A3025 RMK A01 T10031005  RH  099%=      5-min Rain = 0
KAM2 090753Z 19004KT M00/M01 A3025 RMK A01 T10031005  RH  099%=      5-min Rain = 0
KAM2 090754Z 19004KT M00/M01 A3025 RMK A01 T10031005  RH  099%=      5-min Rain = 0
KAM2 090755Z 19004KT M00/M01 A3025 RMK A01 T10041006  RH  099%=      5-min Rain = 0
KAM2 090756Z 19004KT M01/M01 A3025 RMK A01 T10051006  RH  099%=      5-min Rain = 0
KAM2 090757Z 19004KT M01/M01 A3025 RMK A01 T10061007  RH  099%=      5-min Rain = 0
KAM2 090758Z 18004KT M01/M01 A3025 RMK A01 T10061007  RH  099%=      5-min Rain = 0
KAM2 090759Z 18004KT M01/M01 A3025 RMK A01 T10061007  RH  099%=      5-min Rain = 0
KAM2 090800Z 19004KT M01/M01 A3025 RMK A01 T10061007  RH  099%=      5-min Rain = 0
KAM2 090801Z 19004KT M01/M01 A3025 RMK A01 T10061008  RH  099%=      5-min Rain = 0
KAM2 090802Z 19004KT M01/M01 A3025 RMK A01 T10061008  RH  099%=      5-min Rain = 0
KAM2 090803Z 19004KT M01/M01 A3025 RMK A01 T10061007  RH  099%=      5-min Rain = 0
KAM2 090804Z 19004KT M01/M01 A3025 RMK A01 T10061008  RH  099%=      5-min Rain = 0
KAM2 090805Z 19004KT M01/M01 A3025 RMK A01 T10061007  RH  099%=      5-min Rain = 0
KAM2 090806Z 19004KT M01/M01 A3025 RMK A01 T10051006  RH  099%=      5-min Rain = 0
KAM2 090807Z 19004KT M01/M01 A3025 RMK A01 T10051006  RH  099%=      5-min Rain = 0
KAM2 090808Z 18005KT M01/M01 A3025 RMK A01 T10051007  RH  099%=      5-min Rain = 0
KAM2 090809Z 18005KT M01/M01 A3025 RMK A01 T10051007  RH  099%=      5-min Rain = 0
KAM2 090810Z 18005KT M01/M01 A3025 RMK A01 T10051007  RH  099%=      5-min Rain = 0
KAM2 090811Z 18005KT M01/M01 A3025 RMK A01 T10061007  RH  099%=      5-min Rain = 0
KAM2 090812Z 18005KT M01/M01 A3025 RMK A01 T10051007  RH  099%=      5-min Rain = 0
KAM2 090813Z 18005KT M01/M01 A3025 RMK A01 T10051007  RH  099%=      5-min Rain = 0
KAM2 090814Z 18005KT M01/M01 A3025 RMK A01 T10061007  RH  099%=      5-min Rain = 0
KAM2 090815Z 17005KT M01/M01 A3025 RMK A01 T10051007  RH  099%=      5-min Rain = 0
KAM2 090816Z 17004KT M00/M01 A3025 RMK A01 T10041005  RH  099%=      5-min Rain = 0
KAM2 090817Z 17003KT M00/M01 A3025 RMK A01 T10041005  RH  099%=      5-min Rain = 0
KAM2 090818Z 17003KT M00/M01 A3025 RMK A01 T10041005  RH  099%=      5-min Rain = 0
KAM2 090819Z 17003KT M00/M01 A3025 RMK A01 T10041005  RH  099%=      5-min Rain = 0
KAM2 090820Z 17002KT M00/M01 A3025 RMK A01 T10041005  RH  099%=      5-min Rain = 0
KAM2 090821Z 17002KT M00/M01 A3025 RMK A01 T10041005  RH  099%=      5-min Rain = 0
KAM2 090822Z 17003KT M00/M01 A3025 RMK A01 T10031005  RH  099%=      5-min Rain = 0
KAM2 090823Z 17002KT M00/M01 A3025 RMK A01 T10031005  RH  099%=      5-min Rain = 0
KAM2 090824Z 16002KT M00/M01 A3025 RMK A01 T10041005  RH  099%=      5-min Rain = 0
KAM2 090825Z 17002KT M00/M01 A3025 RMK A01 T10041006  RH  099%=      5-min Rain = 0
KAM2 090826Z 17002KT M00/M01 A3025 RMK A01 T10041006  RH  099%=      5-min Rain = 0
KAM2 090827Z 17003KT M01/M01 A3025 RMK A01 T10051007  RH  099%=      5-min Rain = 0
KAM2 090828Z 16002KT M01/M01 A3025 RMK A01 T10051007  RH  099%=      5-min Rain = 0
KAM2 090829Z 16002KT M01/M01 A3025 RMK A01 T10061008  RH  099%=      5-min Rain = 0
KAM2 090830Z 17002KT M01/M01 A3025 RMK A01 T10071009  RH  098%=      5-min Rain = 0
KAM2 090831Z 17002KT M01/M01 A3025 RMK A01 T10061008  RH  099%=      5-min Rain = 0
KAM2 090832Z 17002KT M01/M01 A3025 RMK A01 T10061008  RH  099%=      5-min Rain = 0
KAM2 090833Z 17002KT M01/M01 A3025 RMK A01 T10061008  RH  099%=      5-min Rain = 0
KAM2 090834Z 17002KT M01/M01 A3025 RMK A01 T10061008  RH  099%=      5-min Rain = 0
KAM2 090835Z 17002KT M01/M01 A3025 RMK A01 T10061008  RH  099%=      5-min Rain = 0
KAM2 090836Z 16002KT M01/M01 A3025 RMK A01 T10061008  RH  098%=      5-min Rain = 0
KAM2 090837Z 17002KT M01/M01 A3025 RMK A01 T10061008  RH  098%=      5-min Rain = 0
KAM2 090838Z 17002KT M01/M01 A3025 RMK A01 T10061008  RH  098%=      5-min Rain = 0
KAM2 090839Z 17002KT M01/M01 A3025 RMK A01 T10061008  RH  098%=      5-min Rain = 0
KAM2 090840Z 17002KT M01/M01 A3025 RMK A01 T10061008  RH  098%=      5-min Rain = 0
KAM2 090841Z 18002KT M01/M01 A3024 RMK A01 T10061008  RH  098%=      5-min Rain = 0
KAM2 090842Z 18002KT M01/M01 A3024 RMK A01 T10061008  RH  098%=      5-min Rain = 0
KAM2 090843Z 18002KT M01/M01 A3024 RMK A01 T10061008  RH  098%=      5-min Rain = 0
KAM2 090844Z 18002KT M01/M01 A3024 RMK A01 T10061008  RH  098%=      5-min Rain = 0
KAM2 090845Z 18002KT M01/M01 A3024 RMK A01 T10071009  RH  098%=      5-min Rain = 0
KAM2 090846Z 17002KT M01/M01 A3024 RMK A01 T10091012  RH  098%=      5-min Rain = 0
KAM2 090847Z 17003KT M01/M01 A3024 RMK A01 T10101013  RH  098%=      5-min Rain = 0
KAM2 090848Z 18003KT M01/M01 A3024 RMK A01 T10111014  RH  098%=      5-min Rain = 0
KAM2 090849Z 18003KT M01/M02 A3024 RMK A01 T10111015  RH  097%=      5-min Rain = 0
KAM2 090850Z 18003KT M01/M02 A3024 RMK A01 T10121016  RH  097%=      5-min Rain = 0
KAM2 090851Z 20003KT M01/M02 A3024 RMK A01 T10141017  RH  097%=      5-min Rain = 0
KAM2 090852Z 20003KT M02/M02 A3024 RMK A01 T10151019  RH  097%=      5-min Rain = 0
KAM2 090853Z 19003KT M02/M02 A3024 RMK A01 T10161020  RH  097%=      5-min Rain = 0
KAM2 090854Z 19003KT M02/M02 A3024 RMK A01 T10171021  RH  097%=      5-min Rain = 0
KAM2 090855Z 19003KT M02/M02 A3024 RMK A01 T10161020  RH  097%=      5-min Rain = 0
KAM2 090856Z 19003KT M02/M02 A3024 RMK A01 T10161019  RH  098%=      5-min Rain = 0
KAM2 090857Z 19003KT M02/M02 A3024 RMK A01 T10151018  RH  098%=      5-min Rain = 0
KAM2 090858Z 19004KT M02/M02 A3024 RMK A01 T10161019  RH  098%=      5-min Rain = 0
KAM2 090859Z 20004KT M02/M02 A3024 RMK A01 T10161019  RH  098%=      5-min Rain = 0
KAM2 090900Z 19004KT M02/M02 A3024 RMK A01 T10151018  RH  098%=      5-min Rain = 0
KAM2 090901Z 19003KT M02/M02 A3024 RMK A01 T10151018  RH  098%=      5-min Rain = 0
KAM2 090902Z 19004KT M02/M02 A3024 RMK A01 T10151018  RH  098%=      5-min Rain = 0
KAM2 090903Z 19004KT M02/M02 A3024 RMK A01 T10151018  RH  098%=      5-min Rain = 0
KAM2 090904Z 19004KT M01/M02 A3024 RMK A01 T10141017  RH  098%=      5-min Rain = 0
KAM2 090905Z 19004KT M01/M02 A3024 RMK A01 T10141016  RH  098%=      5-min Rain = 0
KAM2 090906Z 19004KT M01/M02 A3024 RMK A01 T10131015  RH  099%=      5-min Rain = 0
KAM2 090907Z 19004KT M01/M01 A3024 RMK A01 T10111013  RH  099%=      5-min Rain = 0
KAM2 090908Z 19004KT M01/M01 A3024 RMK A01 T10091010  RH  099%=      5-min Rain = 0
KAM2 090909Z 19004KT M01/M01 A3024 RMK A01 T10061008  RH  099%=      5-min Rain = 0
KAM2 090910Z 19004KT M01/M01 A3024 RMK A01 T10051006  RH  099%=      5-min Rain = 0
KAM2 090911Z 19004KT M01/M01 A3024 RMK A01 T10051006  RH  099%=      5-min Rain = 0
KAM2 090912Z 18003KT M01/M01 A3024 RMK A01 T10051006  RH  099%=      5-min Rain = 0
KAM2 090913Z 19003KT M01/M01 A3024 RMK A01 T10051006  RH  099%=      5-min Rain = 0
KAM2 090914Z 19003KT M01/M01 A3024 RMK A01 T10051006  RH  099%=      5-min Rain = 0
KAM2 090915Z 19002KT M00/M01 A3024 RMK A01 T10041005  RH  099%=      5-min Rain = 0
KAM2 090916Z 19002KT M00/M01 A3024 RMK A01 T10041005  RH  099%=      5-min Rain = 0
KAM2 090917Z 19002KT M00/M01 A3024 RMK A01 T10041006  RH  099%=      5-min Rain = 0
KAM2 090918Z 19002KT M00/M01 A3024 RMK A01 T10041006  RH  099%=      5-min Rain = 0
KAM2 090919Z 19001KT M01/M01 A3024 RMK A01 T10061008  RH  099%=      5-min Rain = 0
KAM2 090920Z 19001KT M01/M01 A3023 RMK A01 T10071009  RH  099%=      5-min Rain = 0
KAM2 090921Z 19001KT M01/M01 A3023 RMK A01 T10081010  RH  099%=      5-min Rain = 0
KAM2 090922Z 18001KT M01/M01 A3023 RMK A01 T10081011  RH  099%=      5-min Rain = 0
KAM2 090923Z 17001KT M01/M01 A3024 RMK A01 T10091011  RH  098%=      5-min Rain = 0
KAM2 090924Z 16000KT M01/M01 A3024 RMK A01 T10091011  RH  099%=      5-min Rain = 0
KAM2 090925Z 16001KT M01/M01 A3024 RMK A01 T10081009  RH  099%=      5-min Rain = 0
KAM2 090926Z 17001KT M01/M01 A3023 RMK A01 T10071009  RH  099%=      5-min Rain = 0
KAM2 090927Z 17002KT M01/M01 A3023 RMK A01 T10071009  RH  099%=      5-min Rain = 0
KAM2 090928Z 17002KT M01/M01 A3023 RMK A01 T10081009  RH  099%=      5-min Rain = 0
KAM2 090929Z 17001KT M01/M01 A3023 RMK A01 T10081009  RH  099%=      5-min Rain = 0
KAM2 090930Z 17001KT M01/M01 A3023 RMK A01 T10071009  RH  099%=      5-min Rain = 0
KAM2 090931Z 15001KT M01/M01 A3024 RMK A01 T10081009  RH  099%=      5-min Rain = 0
KAM2 090932Z 15001KT M01/M01 A3024 RMK A01 T10071009  RH  099%=      5-min Rain = 0
KAM2 090933Z 16001KT M01/M01 A3024 RMK A01 T10081010  RH  099%=      5-min Rain = 0
KAM2 090934Z 16001KT M01/M01 A3024 RMK A01 T10091012  RH  098%=      5-min Rain = 0
KAM2 090935Z 16002KT M01/M01 A3023 RMK A01 T10101013  RH  098%=      5-min Rain = 0
KAM2 090936Z 16002KT M01/M01 A3023 RMK A01 T10111014  RH  098%=      5-min Rain = 0
KAM2 090937Z 17002KT M01/M02 A3023 RMK A01 T10121015  RH  098%=      5-min Rain = 0
KAM2 090938Z 17002KT M01/M02 A3023 RMK A01 T10131015  RH  098%=      5-min Rain = 0
KAM2 090939Z 17002KT M01/M02 A3023 RMK A01 T10131015  RH  098%=      5-min Rain = 0
KAM2 090940Z 16002KT M01/M02 A3023 RMK A01 T10131015  RH  098%=      5-min Rain = 0
KAM2 090941Z 17002KT M01/M02 A3023 RMK A01 T10131015  RH  098%=      5-min Rain = 0
KAM2 090942Z 17002KT M01/M02 A3023 RMK A01 T10121015  RH  098%=      5-min Rain = 0
KAM2 090943Z 18002KT M01/M02 A3023 RMK A01 T10131015  RH  098%=      5-min Rain = 0
KAM2 090944Z 18002KT M01/M02 A3023 RMK A01 T10141016  RH  098%=      5-min Rain = 0
KAM2 090945Z 18002KT M02/M02 A3023 RMK A01 T10151018  RH  098%=      5-min Rain = 0
KAM2 090946Z 18002KT M02/M02 A3023 RMK A01 T10151018  RH  098%=      5-min Rain = 0
KAM2 090947Z 18002KT M02/M02 A3023 RMK A01 T10161019  RH  098%=      5-min Rain = 0
KAM2 090948Z 18002KT M02/M02 A3023 RMK A01 T10161019  RH  098%=      5-min Rain = 0
KAM2 090949Z 17002KT M02/M02 A3023 RMK A01 T10161019  RH  098%=      5-min Rain = 0
KAM2 090950Z 17002KT M02/M02 A3023 RMK A01 T10161018  RH  098%=      5-min Rain = 0
KAM2 090951Z 17002KT M02/M02 A3023 RMK A01 T10161018  RH  098%=      5-min Rain = 0
KAM2 090952Z 17002KT M02/M02 A3023 RMK A01 T10161018  RH  098%=      5-min Rain = 0
KAM2 090953Z 18003KT M02/M02 A3023 RMK A01 T10161018  RH  098%=      5-min Rain = 0
KAM2 090954Z 18002KT M02/M02 A3023 RMK A01 T10161019  RH  098%=      5-min Rain = 0
KAM2 090955Z 18002KT M02/M02 A3023 RMK A01 T10171019  RH  098%=      5-min Rain = 0
KAM2 090956Z 18002KT M02/M02 A3023 RMK A01 T10181020  RH  098%=      5-min Rain = 0
KAM2 090957Z 18001KT M02/M02 A3023 RMK A01 T10181021  RH  098%=      5-min Rain = 0
KAM2 090958Z 18001KT M02/M02 A3023 RMK A01 T10181021  RH  098%=      5-min Rain = 0
KAM2 090959Z 18002KT M02/M02 A3023 RMK A01 T10181021  RH  098%=      5-min Rain = 0
KAM2 091000Z 18002KT M02/M02 A3023 RMK A01 T10171019  RH  098%=      5-min Rain = 0
KAM2 091001Z 18002KT M02/M02 A3023 RMK A01 T10161019  RH  098%=      5-min Rain = 0
KAM2 091002Z 18002KT M02/M02 A3023 RMK A01 T10171019  RH  098%=      5-min Rain = 0
KAM2 091003Z 18002KT M02/M02 A3023 RMK A01 T10171020  RH  098%=      5-min Rain = 0
KAM2 091004Z 18002KT M02/M02 A3023 RMK A01 T10171020  RH  098%=      5-min Rain = 0
KAM2 091005Z 17002KT M02/M02 A3023 RMK A01 T10171020  RH  098%=      5-min Rain = 0
KAM2 091006Z 16002KT M02/M02 A3023 RMK A01 T10171020  RH  098%=      5-min Rain = 0
KAM2 091007Z 15001KT M02/M02 A3023 RMK A01 T10181021  RH  098%=      5-min Rain = 0
KAM2 091008Z 15001KT M02/M02 A3023 RMK A01 T10191022  RH  098%=      5-min Rain = 0
KAM2 091009Z 15001KT M02/M02 A3023 RMK A01 T10191022  RH  098%=      5-min Rain = 0
KAM2 091010Z 15001KT M02/M02 A3023 RMK A01 T10201023  RH  098%=      5-min Rain = 0
KAM2 091011Z 16002KT M02/M02 A3023 RMK A01 T10201024  RH  098%=      5-min Rain = 0
KAM2 091012Z 16002KT M02/M02 A3023 RMK A01 T10211024  RH  098%=      5-min Rain = 0
KAM2 091013Z 16002KT M02/M02 A3023 RMK A01 T10211024  RH  098%=      5-min Rain = 0
KAM2 091014Z 16002KT M02/M03 A3023 RMK A01 T10211025  RH  098%=      5-min Rain = 0
KAM2 091015Z 16002KT M02/M03 A3023 RMK A01 T10231026  RH  097%=      5-min Rain = 0
KAM2 091016Z 16002KT M02/M03 A3023 RMK A01 T10231027  RH  097%=      5-min Rain = 0
KAM2 091017Z 17002KT M02/M03 A3023 RMK A01 T10241028  RH  097%=      5-min Rain = 0
KAM2 091018Z 18002KT M02/M03 A3023 RMK A01 T10241028  RH  097%=      5-min Rain = 0
KAM2 091019Z 18002KT M02/M03 A3023 RMK A01 T10241028  RH  097%=      5-min Rain = 0
KAM2 091020Z 19002KT M03/M03 A3023 RMK A01 T10251028  RH  097%=      5-min Rain = 0
KAM2 091021Z 19002KT M03/M03 A3023 RMK A01 T10251029  RH  097%=      5-min Rain = 0
KAM2 091022Z 18002KT M03/M03 A3023 RMK A01 T10251029  RH  097%=      5-min Rain = 0
KAM2 091023Z 18002KT M03/M03 A3023 RMK A01 T10251029  RH  097%=      5-min Rain = 0
KAM2 091024Z 18002KT M03/M03 A3023 RMK A01 T10251028  RH  098%=      5-min Rain = 0
KAM2 091025Z 18003KT M03/M03 A3023 RMK A01 T10251029  RH  098%=      5-min Rain = 0
KAM2 091026Z 18003KT M03/M03 A3023 RMK A01 T10251028  RH  098%=      5-min Rain = 0
KAM2 091027Z 18003KT M03/M03 A3023 RMK A01 T10251028  RH  098%=      5-min Rain = 0
KAM2 091028Z 18002KT M03/M03 A3023 RMK A01 T10251028  RH  098%=      5-min Rain = 0
KAM2 091029Z 18003KT M03/M03 A3023 RMK A01 T10251028  RH  098%=      5-min Rain = 0
KAM2 091030Z 19003KT M03/M03 A3023 RMK A01 T10251028  RH  098%=      5-min Rain = 0
KAM2 091031Z 19003KT M03/M03 A3023 RMK A01 T10251028  RH  098%=      5-min Rain = 0
KAM2 091032Z 19003KT M02/M03 A3023 RMK A01 T10241027  RH  098%=      5-min Rain = 0
KAM2 091033Z 19004KT M02/M03 A3023 RMK A01 T10231026  RH  098%=      5-min Rain = 0
KAM2 091034Z 19004KT M02/M03 A3023 RMK A01 T10231026  RH  098%=      5-min Rain = 0
KAM2 091035Z 19004KT M02/M03 A3023 RMK A01 T10231026  RH  098%=      5-min Rain = 0
KAM2 091036Z 18003KT M02/M03 A3023 RMK A01 T10241027  RH  098%=      5-min Rain = 0
KAM2 091037Z 18003KT M02/M03 A3023 RMK A01 T10241027  RH  098%=      5-min Rain = 0
KAM2 091038Z 18004KT M02/M03 A3023 RMK A01 T10231027  RH  098%=      5-min Rain = 0
KAM2 091039Z 18003KT M02/M03 A3023 RMK A01 T10231026  RH  098%=      5-min Rain = 0
KAM2 091040Z 18003KT M02/M03 A3023 RMK A01 T10231025  RH  098%=      5-min Rain = 0
KAM2 091041Z 18003KT M02/M03 A3023 RMK A01 T10221025  RH  098%=      5-min Rain = 0
KAM2 091042Z 18003KT M02/M03 A3023 RMK A01 T10221026  RH  098%=      5-min Rain = 0
KAM2 091043Z 18003KT M02/M03 A3023 RMK A01 T10231026  RH  098%=      5-min Rain = 0
KAM2 091044Z 18003KT M02/M03 A3023 RMK A01 T10231027  RH  098%=      5-min Rain = 0
KAM2 091045Z 18003KT M02/M03 A3023 RMK A01 T10241028  RH  097%=      5-min Rain = 0
KAM2 091046Z 18003KT M03/M03 A3023 RMK A01 T10251028  RH  097%=      5-min Rain = 0
KAM2 091047Z 18003KT M03/M03 A3023 RMK A01 T10251029  RH  097%=      5-min Rain = 0
KAM2 091048Z 18003KT M03/M03 A3023 RMK A01 T10251029  RH  097%=      5-min Rain = 0
KAM2 091049Z 18003KT M03/M03 A3023 RMK A01 T10261030  RH  097%=      5-min Rain = 0
KAM2 091050Z 18003KT M03/M03 A3023 RMK A01 T10261030  RH  097%=      5-min Rain = 0
KAM2 091051Z 18004KT M03/M03 A3023 RMK A01 T10261029  RH  097%=      5-min Rain = 0
KAM2 091052Z 18003KT M03/M03 A3023 RMK A01 T10261030  RH  097%=      5-min Rain = 0
KAM2 091053Z 18003KT M03/M03 A3023 RMK A01 T10261030  RH  097%=      5-min Rain = 0
KAM2 091054Z 18004KT M03/M03 A3023 RMK A01 T10261030  RH  097%=      5-min Rain = 0
KAM2 091055Z 19004KT M03/M03 A3023 RMK A01 T10261030  RH  097%=      5-min Rain = 0
KAM2 091056Z 19004KT M03/M03 A3023 RMK A01 T10261029  RH  097%=      5-min Rain = 0
KAM2 091057Z 19004KT M03/M03 A3023 RMK A01 T10261029  RH  098%=      5-min Rain = 0
KAM2 091058Z 19004KT M03/M03 A3023 RMK A01 T10261029  RH  097%=      5-min Rain = 0
KAM2 091059Z 19004KT M03/M03 A3023 RMK A01 T10261030  RH  097%=      5-min Rain = 0
KAM2 091100Z 18004KT M03/M03 A3023 RMK A01 T10261030  RH  097%=      5-min Rain = 0
KAM2 091101Z 18004KT M03/M03 A3023 RMK A01 T10261030  RH  097%=      5-min Rain = 0
KAM2 091102Z 18004KT M03/M03 A3023 RMK A01 T10261030  RH  097%=      5-min Rain = 0
KAM2 091103Z 18004KT M03/M03 A3023 RMK A01 T10261029  RH  097%=      5-min Rain = 0
KAM2 091104Z 19004KT M03/M03 A3023 RMK A01 T10251028  RH  098%=      5-min Rain = 0
KAM2 091105Z 19005KT M02/M03 A3023 RMK A01 T10241027  RH  098%=      5-min Rain = 0
KAM2 091106Z 19005KT M02/M03 A3023 RMK A01 T10231026  RH  098%=      5-min Rain = 0
KAM2 091107Z 19005KT M02/M03 A3023 RMK A01 T10221025  RH  098%=      5-min Rain = 0
KAM2 091108Z 19004KT M02/M03 A3023 RMK A01 T10221025  RH  098%=      5-min Rain = 0
KAM2 091109Z 18004KT M02/M03 A3023 RMK A01 T10221025  RH  098%=      5-min Rain = 0
KAM2 091110Z 18003KT M02/M03 A3023 RMK A01 T10221025  RH  098%=      5-min Rain = 0
KAM2 091111Z 18003KT M02/M03 A3023 RMK A01 T10221025  RH  098%=      5-min Rain = 0
KAM2 091112Z 18003KT M02/M03 A3023 RMK A01 T10221025  RH  098%=      5-min Rain = 0
KAM2 091113Z 18003KT M02/M03 A3023 RMK A01 T10221026  RH  097%=      5-min Rain = 0
KAM2 091114Z 18003KT M02/M03 A3023 RMK A01 T10221026  RH  097%=      5-min Rain = 0
KAM2 091115Z 18003KT M02/M03 A3023 RMK A01 T10231026  RH  097%=      5-min Rain = 0
KAM2 091116Z 18004KT M02/M03 A3023 RMK A01 T10221026  RH  097%=      5-min Rain = 0
KAM2 091117Z 18004KT M02/M03 A3023 RMK A01 T10221026  RH  097%=      5-min Rain = 0
KAM2 091118Z 18004KT M02/M03 A3023 RMK A01 T10221026  RH  097%=      5-min Rain = 0
KAM2 091119Z 19004KT M02/M03 A3023 RMK A01 T10231027  RH  097%=      5-min Rain = 0
KAM2 091120Z 18004KT M02/M03 A3023 RMK A01 T10241028  RH  097%=      5-min Rain = 0
KAM2 091121Z 18004KT M02/M03 A3023 RMK A01 T10241029  RH  097%=      5-min Rain = 0
KAM2 091122Z 19004KT M03/M03 A3023 RMK A01 T10251030  RH  097%=      5-min Rain = 0
KAM2 091123Z 18003KT M03/M03 A3023 RMK A01 T10261030  RH  097%=      5-min Rain = 0
KAM2 091124Z 18003KT M03/M03 A3023 RMK A01 T10261030  RH  097%=      5-min Rain = 0
KAM2 091125Z 18003KT M03/M03 A3023 RMK A01 T10261031  RH  097%=      5-min Rain = 0
KAM2 091126Z 18003KT M03/M03 A3023 RMK A01 T10261031  RH  097%=      5-min Rain = 0
KAM2 091127Z 17003KT M03/M03 A3023 RMK A01 T10271031  RH  097%=      5-min Rain = 0
KAM2 091128Z 18003KT M03/M03 A3023 RMK A01 T10261030  RH  097%=      5-min Rain = 0
KAM2 091129Z 18004KT M03/M03 A3023 RMK A01 T10261030  RH  097%=      5-min Rain = 0
KAM2 091130Z 18004KT M03/M03 A3023 RMK A01 T10261031  RH  097%=      5-min Rain = 0
KAM2 091131Z 18004KT M03/M03 A3023 RMK A01 T10261031  RH  097%=      5-min Rain = 0
KAM2 091132Z 18004KT M03/M03 A3023 RMK A01 T10261031  RH  097%=      5-min Rain = 0
KAM2 091133Z 18004KT M03/M03 A3023 RMK A01 T10261031  RH  097%=      5-min Rain = 0
KAM2 091134Z 19004KT M03/M03 A3023 RMK A01 T10261031  RH  097%=      5-min Rain = 0
KAM2 091135Z 18004KT M03/M03 A3023 RMK A01 T10271031  RH  097%=      5-min Rain = 0
KAM2 091136Z 18003KT M03/M03 A3023 RMK A01 T10271032  RH  097%=      5-min Rain = 0
KAM2 091137Z 17003KT M03/M03 A3023 RMK A01 T10271032  RH  097%=      5-min Rain = 0
KAM2 091138Z 17003KT M03/M03 A3023 RMK A01 T10271031  RH  097%=      5-min Rain = 0
KAM2 091139Z 18003KT M03/M03 A3023 RMK A01 T10281032  RH  097%=      5-min Rain = 0
KAM2 091140Z 17003KT M03/M03 A3023 RMK A01 T10281033  RH  096%=      5-min Rain = 0
KAM2 091141Z 17003KT M03/M03 A3023 RMK A01 T10281033  RH  097%=      5-min Rain = 0
KAM2 091142Z 18003KT M03/M03 A3023 RMK A01 T10281033  RH  097%=      5-min Rain = 0
KAM2 091143Z 18004KT M03/M03 A3023 RMK A01 T10281033  RH  097%=      5-min Rain = 0
KAM2 091144Z 18004KT M03/M03 A3023 RMK A01 T10291033  RH  097%=      5-min Rain = 0
KAM2 091145Z 18004KT M03/M03 A3023 RMK A01 T10291033  RH  097%=      5-min Rain = 0
KAM2 091146Z 18004KT M03/M03 A3023 RMK A01 T10291034  RH  097%=      5-min Rain = 0
KAM2 091147Z 18004KT M03/M03 A3023 RMK A01 T10291034  RH  097%=      5-min Rain = 0
KAM2 091148Z 18004KT M03/M03 A3023 RMK A01 T10291033  RH  097%=      5-min Rain = 0
KAM2 091149Z 18004KT M03/M03 A3023 RMK A01 T10281033  RH  097%=      5-min Rain = 0
KAM2 091150Z 18004KT M03/M03 A3023 RMK A01 T10281033  RH  097%=      5-min Rain = 0
KAM2 091151Z 18004KT M03/M03 A3023 RMK A01 T10291034  RH  097%=      5-min Rain = 0
KAM2 091152Z 18004KT M03/M04 A3023 RMK A01 T10301035  RH  096%=      5-min Rain = 0
KAM2 091153Z 18004KT M03/M04 A3023 RMK A01 T10311037  RH  096%=      5-min Rain = 0
KAM2 091154Z 18004KT M03/M04 A3023 RMK A01 T10321037  RH  096%=      5-min Rain = 0
KAM2 091155Z 18004KT M03/M04 A3023 RMK A01 T10311037  RH  096%=      5-min Rain = 0
KAM2 091156Z 18004KT M03/M04 A3023 RMK A01 T10321037  RH  096%=      5-min Rain = 0
KAM2 091157Z 18004KT M03/M04 A3023 RMK A01 T10321037  RH  096%=      5-min Rain = 0
KAM2 091158Z 18004KT M03/M04 A3023 RMK A01 T10321037  RH  096%=      5-min Rain = 0
KAM2 091159Z 18003KT M03/M04 A3023 RMK A01 T10321036  RH  097%=      5-min Rain = 0
KAM2 091200Z 18003KT M03/M04 A3023 RMK A01 T10311036  RH  097%=      5-min Rain = 0
KAM2 091201Z 18003KT M03/M03 A3023 RMK A01 T10301034  RH  097%=      5-min Rain = 0
KAM2 091202Z 17003KT M03/M03 A3023 RMK A01 T10291033  RH  097%=      5-min Rain = 0
KAM2 091203Z 17003KT M03/M03 A3023 RMK A01 T10291032  RH  097%=      5-min Rain = 0
KAM2 091204Z 18003KT M03/M03 A3023 RMK A01 T10281032  RH  097%=      5-min Rain = 0
KAM2 091205Z 18003KT M03/M03 A3023 RMK A01 T10281032  RH  097%=      5-min Rain = 0
KAM2 091206Z 18003KT M03/M03 A3023 RMK A01 T10281032  RH  097%=      5-min Rain = 0
KAM2 091207Z 18003KT M03/M03 A3023 RMK A01 T10291033  RH  097%=      5-min Rain = 0
KAM2 091208Z 18004KT M03/M03 A3023 RMK A01 T10291033  RH  097%=      5-min Rain = 0
KAM2 091209Z 18004KT M03/M03 A3023 RMK A01 T10291034  RH  097%=      5-min Rain = 0
KAM2 091210Z 19004KT M03/M03 A3023 RMK A01 T10291034  RH  097%=      5-min Rain = 0
KAM2 091211Z 19004KT M03/M03 A3023 RMK A01 T10291034  RH  097%=      5-min Rain = 0
KAM2 091212Z 19004KT M03/M03 A3023 RMK A01 T10301034  RH  097%=      5-min Rain = 0
KAM2 091213Z 19003KT M03/M04 A3023 RMK A01 T10301035  RH  096%=      5-min Rain = 0
KAM2 091214Z 19003KT M03/M04 A3023 RMK A01 T10301035  RH  096%=      5-min Rain = 0
KAM2 091215Z 18003KT M03/M04 A3023 RMK A01 T10311036  RH  096%=      5-min Rain = 0
KAM2 091216Z 18003KT M03/M04 A3023 RMK A01 T10311036  RH  096%=      5-min Rain = 0
KAM2 091217Z 18003KT M03/M04 A3023 RMK A01 T10311037  RH  096%=      5-min Rain = 0
KAM2 091218Z 18003KT M03/M04 A3023 RMK A01 T10311037  RH  096%=      5-min Rain = 0
KAM2 091219Z 18004KT M03/M04 A3023 RMK A01 T10321036  RH  096%=      5-min Rain = 0
KAM2 091220Z 18004KT M03/M04 A3023 RMK A01 T10311036  RH  097%=      5-min Rain = 0
KAM2 091221Z 19004KT M03/M04 A3023 RMK A01 T10311036  RH  097%=      5-min Rain = 0
KAM2 091222Z 19004KT M03/M04 A3023 RMK A01 T10311035  RH  097%=      5-min Rain = 0
KAM2 091223Z 19004KT M03/M04 A3023 RMK A01 T10311035  RH  097%=      5-min Rain = 0
KAM2 091224Z 19004KT M03/M04 A3023 RMK A01 T10311035  RH  096%=      5-min Rain = 0
KAM2 091225Z 19004KT M03/M04 A3023 RMK A01 T10311036  RH  096%=      5-min Rain = 0
KAM2 091226Z 19004KT M03/M04 A3023 RMK A01 T10311037  RH  096%=      5-min Rain = 0
KAM2 091227Z 19004KT M03/M04 A3023 RMK A01 T10321037  RH  096%=      5-min Rain = 0
KAM2 091228Z 18005KT M03/M04 A3023 RMK A01 T10311036  RH  096%=      5-min Rain = 0
KAM2 091229Z 18004KT M03/M04 A3023 RMK A01 T10311035  RH  097%=      5-min Rain = 0
KAM2 091230Z 18005KT M03/M04 A3023 RMK A01 T10301035  RH  097%=      5-min Rain = 0
KAM2 091231Z 18004KT M03/M03 A3023 RMK A01 T10301034  RH  097%=      5-min Rain = 0
KAM2 091232Z 18004KT M03/M03 A3023 RMK A01 T10291034  RH  097%=      5-min Rain = 0
KAM2 091233Z 18004KT M03/M03 A3023 RMK A01 T10301034  RH  097%=      5-min Rain = 0
KAM2 091234Z 19004KT M03/M04 A3023 RMK A01 T10301035  RH  097%=      5-min Rain = 0
KAM2 091235Z 19004KT M03/M04 A3023 RMK A01 T10301035  RH  097%=      5-min Rain = 0
KAM2 091236Z 18004KT M03/M04 A3023 RMK A01 T10301035  RH  097%=      5-min Rain = 0
KAM2 091237Z 18004KT M03/M04 A3023 RMK A01 T10301035  RH  097%=      5-min Rain = 0
KAM2 091238Z 19004KT M03/M04 A3023 RMK A01 T10301035  RH  097%=      5-min Rain = 0
KAM2 091239Z 19004KT M03/M04 A3023 RMK A01 T10301035  RH  097%=      5-min Rain = 0
KAM2 091240Z 19003KT M03/M04 A3023 RMK A01 T10301035  RH  097%=      5-min Rain = 0
KAM2 091241Z 18003KT M03/M04 A3023 RMK A01 T10301035  RH  097%=      5-min Rain = 0
KAM2 091242Z 18003KT M03/M04 A3023 RMK A01 T10311036  RH  096%=      5-min Rain = 0
KAM2 091243Z 18003KT M03/M04 A3023 RMK A01 T10321037  RH  096%=      5-min Rain = 0
KAM2 091244Z 18003KT M03/M04 A3023 RMK A01 T10321037  RH  096%=      5-min Rain = 0
KAM2 091245Z 18004KT M03/M04 A3023 RMK A01 T10321037  RH  096%=      5-min Rain = 0
KAM2 091246Z 18004KT M03/M04 A3023 RMK A01 T10321037  RH  097%=      5-min Rain = 0
KAM2 091247Z 18004KT M03/M04 A3023 RMK A01 T10321037  RH  097%=      5-min Rain = 0
KAM2 091248Z 18004KT M03/M04 A3023 RMK A01 T10321037  RH  097%=      5-min Rain = 0
KAM2 091249Z 18004KT M03/M04 A3023 RMK A01 T10311035  RH  097%=      5-min Rain = 0
KAM2 091250Z 18005KT M03/M04 A3023 RMK A01 T10311036  RH  097%=      5-min Rain = 0
KAM2 091251Z 19005KT M03/M04 A3023 RMK A01 T10311036  RH  097%=      5-min Rain = 0
KAM2 091252Z 19004KT M03/M04 A3023 RMK A01 T10311036  RH  097%=      5-min Rain = 0
KAM2 091253Z 19004KT M03/M04 A3023 RMK A01 T10311036  RH  097%=      5-min Rain = 0
KAM2 091254Z 19004KT M03/M04 A3023 RMK A01 T10311036  RH  097%=      5-min Rain = 0
KAM2 091255Z 19004KT M03/M04 A3023 RMK A01 T10311036  RH  097%=      5-min Rain = 0
KAM2 091256Z 19004KT M03/M04 A3023 RMK A01 T10311035  RH  097%=      5-min Rain = 0
KAM2 091257Z 18004KT M03/M04 A3023 RMK A01 T10311035  RH  097%=      5-min Rain = 0
KAM2 091258Z 17004KT M03/M04 A3023 RMK A01 T10311035  RH  097%=      5-min Rain = 0
KAM2 091259Z 17003KT M03/M04 A3023 RMK A01 T10301035  RH  097%=      5-min Rain = 0
KAM2 091300Z 17003KT M03/M03 A3023 RMK A01 T10301034  RH  097%=      5-min Rain = 0
KAM2 091301Z 17003KT M03/M04 A3023 RMK A01 T10301035  RH  097%=      5-min Rain = 0
KAM2 091302Z 17002KT M03/M04 A3023 RMK A01 T10301035  RH  097%=      5-min Rain = 0
KAM2 091303Z 17002KT M03/M04 A3023 RMK A01 T10301035  RH  097%=      5-min Rain = 0
KAM2 091304Z 17002KT M03/M04 A3023 RMK A01 T10301035  RH  097%=      5-min Rain = 0
KAM2 091305Z 17002KT M03/M04 A3023 RMK A01 T10301035  RH  097%=      5-min Rain = 0
KAM2 091306Z 18002KT M03/M04 A3023 RMK A01 T10301035  RH  097%=      5-min Rain = 0
KAM2 091307Z 18002KT M03/M04 A3023 RMK A01 T10301035  RH  097%=      5-min Rain = 0
KAM2 091308Z 18003KT M03/M04 A3023 RMK A01 T10311036  RH  096%=      5-min Rain = 0
KAM2 091309Z 18002KT M03/M04 A3023 RMK A01 T10311036  RH  096%=      5-min Rain = 0
KAM2 091310Z 17002KT M03/M04 A3023 RMK A01 T10321037  RH  096%=      5-min Rain = 0
KAM2 091311Z 18002KT M03/M04 A3023 RMK A01 T10321037  RH  096%=      5-min Rain = 0
KAM2 091312Z 17002KT M03/M04 A3023 RMK A01 T10321037  RH  096%=      5-min Rain = 0
KAM2 091313Z 17002KT M03/M04 A3023 RMK A01 T10321037  RH  096%=      5-min Rain = 0
KAM2 091314Z 16002KT M03/M04 A3023 RMK A01 T10321036  RH  097%=      5-min Rain = 0
KAM2 091315Z 17002KT M03/M04 A3023 RMK A01 T10311036  RH  097%=      5-min Rain = 0
KAM2 091316Z 18002KT M03/M04 A3023 RMK A01 T10311036  RH  097%=      5-min Rain = 0
KAM2 091317Z 18002KT M03/M04 A3023 RMK A01 T10311036  RH  096%=      5-min Rain = 0
KAM2 091318Z 18002KT M03/M04 A3023 RMK A01 T10321038  RH  096%=      5-min Rain = 0
KAM2 091319Z 18002KT M03/M04 A3023 RMK A01 T10341040  RH  096%=      5-min Rain = 0
KAM2 091320Z 18002KT M03/M04 A3023 RMK A01 T10341040  RH  096%=      5-min Rain = 0
KAM2 091321Z 17002KT M03/M04 A3024 RMK A01 T10341041  RH  096%=      5-min Rain = 0
KAM2 091322Z 17002KT M03/M04 A3024 RMK A01 T10341040  RH  096%=      5-min Rain = 0
KAM2 091323Z 17002KT M03/M04 A3024 RMK A01 T10341039  RH  096%=      5-min Rain = 0
KAM2 091324Z 17002KT M03/M04 A3023 RMK A01 T10341039  RH  096%=      5-min Rain = 0
KAM2 091325Z 18002KT M03/M04 A3023 RMK A01 T10341039  RH  096%=      5-min Rain = 0
KAM2 091326Z 18002KT M03/M04 A3023 RMK A01 T10341039  RH  096%=      5-min Rain = 0
KAM2 091327Z 19002KT M03/M04 A3023 RMK A01 T10341040  RH  096%=      5-min Rain = 0
KAM2 091328Z 19003KT M04/M04 A3023 RMK A01 T10351041  RH  096%=      5-min Rain = 0
KAM2 091329Z 19003KT M04/M04 A3023 RMK A01 T10351041  RH  096%=      5-min Rain = 0
KAM2 091330Z 20003KT M04/M04 A3023 RMK A01 T10351041  RH  096%=      5-min Rain = 0
KAM2 091331Z 19003KT M04/M04 A3023 RMK A01 T10351041  RH  096%=      5-min Rain = 0
KAM2 091332Z 19003KT M04/M04 A3023 RMK A01 T10351041  RH  096%=      5-min Rain = 0
KAM2 091333Z 18002KT M04/M04 A3024 RMK A01 T10351041  RH  096%=      5-min Rain = 0
KAM2 091334Z 18002KT M03/M04 A3024 RMK A01 T10331039  RH  096%=      5-min Rain = 0
KAM2 091335Z 18003KT M03/M04 A3024 RMK A01 T10321037  RH  096%=      5-min Rain = 0
KAM2 091336Z 18003KT M03/M04 A3024 RMK A01 T10301035  RH  097%=      5-min Rain = 0
KAM2 091337Z 18003KT M03/M04 A3024 RMK A01 T10301035  RH  096%=      5-min Rain = 0
KAM2 091338Z 19003KT M03/M04 A3024 RMK A01 T10311036  RH  096%=      5-min Rain = 0
KAM2 091339Z 19003KT M03/M04 A3024 RMK A01 T10311037  RH  096%=      5-min Rain = 0
KAM2 091340Z 19003KT M03/M04 A3024 RMK A01 T10301037  RH  095%=      5-min Rain = 0
KAM2 091341Z 19003KT M03/M04 A3024 RMK A01 T10301037  RH  095%=      5-min Rain = 0
KAM2 091342Z 19002KT M03/M04 A3024 RMK A01 T10291036  RH  095%=      5-min Rain = 0
KAM2 091343Z 18002KT M03/M04 A3024 RMK A01 T10291035  RH  095%=      5-min Rain = 0
KAM2 091344Z 19002KT M03/M03 A3024 RMK A01 T10281034  RH  095%=      5-min Rain = 0
KAM2 091345Z 18003KT M03/M03 A3023 RMK A01 T10271034  RH  095%=      5-min Rain = 0
KAM2 091346Z 19003KT M03/M03 A3023 RMK A01 T10271034  RH  095%=      5-min Rain = 0
KAM2 091347Z 19003KT M03/M03 A3023 RMK A01 T10271034  RH  095%=      5-min Rain = 0
KAM2 091348Z 19003KT M03/M03 A3023 RMK A01 T10261034  RH  095%=      5-min Rain = 0
KAM2 091349Z 19003KT M03/M03 A3023 RMK A01 T10261034  RH  094%=      5-min Rain = 0
KAM2 091350Z 19003KT M03/M03 A3023 RMK A01 T10261034  RH  094%=      5-min Rain = 0
KAM2 091351Z 18003KT M03/M03 A3023 RMK A01 T10251033  RH  094%=      5-min Rain = 0
KAM2 091352Z 18003KT M03/M03 A3024 RMK A01 T10251033  RH  094%=      5-min Rain = 0
KAM2 091353Z 18003KT M02/M03 A3024 RMK A01 T10241032  RH  094%=      5-min Rain = 0
KAM2 091354Z 18003KT M02/M03 A3024 RMK A01 T10221030  RH  094%=      5-min Rain = 0
KAM2 091355Z 18003KT M02/M03 A3024 RMK A01 T10211029  RH  094%=      5-min Rain = 0
KAM2 091356Z 17003KT M02/M03 A3024 RMK A01 T10201028  RH  094%=      5-min Rain = 0
KAM2 091357Z 18003KT M02/M03 A3024 RMK A01 T10191027  RH  094%=      5-min Rain = 0
KAM2 091358Z 18003KT M02/M03 A3024 RMK A01 T10191027  RH  094%=      5-min Rain = 0
KAM2 091359Z 18003KT M02/M03 A3024 RMK A01 T10181027  RH  094%=      5-min Rain = 0
KAM2 091400Z 18003KT M02/M03 A3024 RMK A01 T10171026  RH  094%=      5-min Rain = 0
KAM2 091401Z 18003KT M02/M03 A3024 RMK A01 T10171027  RH  093%=      5-min Rain = 0
KAM2 091402Z 18003KT M02/M03 A3024 RMK A01 T10171027  RH  093%=      5-min Rain = 0
KAM2 091403Z 17003KT M02/M03 A3024 RMK A01 T10181028  RH  093%=      5-min Rain = 0
KAM2 091404Z 17003KT M02/M03 A3024 RMK A01 T10181028  RH  093%=      5-min Rain = 0
KAM2 091405Z 17003KT M02/M03 A3024 RMK A01 T10181028  RH  093%=      5-min Rain = 0
KAM2 091406Z 17003KT M02/M03 A3024 RMK A01 T10181027  RH  093%=      5-min Rain = 0
KAM2 091407Z 17003KT M02/M03 A3024 RMK A01 T10171026  RH  093%=      5-min Rain = 0
KAM2 091408Z 17003KT M02/M03 A3024 RMK A01 T10161025  RH  094%=      5-min Rain = 0
KAM2 091409Z 17002KT M02/M02 A3024 RMK A01 T10151024  RH  094%=      5-min Rain = 0
KAM2 091410Z 17002KT M01/M02 A3024 RMK A01 T10141023  RH  094%=      5-min Rain = 0
KAM2 091411Z 18002KT M01/M02 A3024 RMK A01 T10131022  RH  094%=      5-min Rain = 0
KAM2 091412Z 18003KT M01/M02 A3024 RMK A01 T10121021  RH  094%=      5-min Rain = 0
KAM2 091413Z 19003KT M01/M02 A3024 RMK A01 T10111019  RH  095%=      5-min Rain = 0
KAM2 091414Z 19003KT M01/M02 A3024 RMK A01 T10101018  RH  095%=      5-min Rain = 0
KAM2 091415Z 20003KT M01/M02 A3024 RMK A01 T10091016  RH  095%=      5-min Rain = 0
KAM2 091416Z 19003KT M01/M01 A3024 RMK A01 T10071014  RH  095%=      5-min Rain = 0
KAM2 091417Z 19003KT M01/M01 A3024 RMK A01 T10061013  RH  095%=      5-min Rain = 0
KAM2 091418Z 18003KT M01/M01 A3024 RMK A01 T10061012  RH  095%=      5-min Rain = 0
KAM2 091419Z 18002KT M00/M01 A3024 RMK A01 T10041011  RH  096%=      5-min Rain = 0
KAM2 091420Z 18002KT M00/M01 A3024 RMK A01 T10031009  RH  096%=      5-min Rain = 0
KAM2 091421Z 17002KT M00/M01 A3024 RMK A01 T10021008  RH  096%=      5-min Rain = 0
KAM2 091422Z 18002KT M00/M01 A3024 RMK A01 T10021007  RH  096%=      5-min Rain = 0
KAM2 091423Z 18002KT M00/M01 A3024 RMK A01 T10011007  RH  096%=      5-min Rain = 0
KAM2 091424Z 18003KT 00/01 A3024 RMK A01 T000000-6  RH  096%=      5-min Rain = 0
KAM2 091425Z 18003KT 00/M01 A3024 RMK A01 T00011005  RH  096%=      5-min Rain = 0
KAM2 091426Z 18002KT 00/M00 A3024 RMK A01 T00021004  RH  096%=      5-min Rain = 0
KAM2 091427Z 18002KT 00/M00 A3024 RMK A01 T00041002  RH  096%=      5-min Rain = 0
KAM2 091428Z 18002KT 01/00 A3024 RMK A01 T000500-0  RH  096%=      5-min Rain = 0
KAM2 091429Z 17001KT 01/00 A3024 RMK A01 T00070002  RH  097%=      5-min Rain = 0
KAM2 091430Z 17002KT 01/00 A3024 RMK A01 T00090004  RH  097%=      5-min Rain = 0
KAM2 091431Z 16002KT 01/01 A3024 RMK A01 T00110006  RH  097%=      5-min Rain = 0
KAM2 091432Z 15002KT 01/01 A3024 RMK A01 T00120007  RH  097%=      5-min Rain = 0
KAM2 091433Z 15001KT 01/01 A3024 RMK A01 T00140009  RH  096%=      5-min Rain = 0
KAM2 091434Z 14001KT 02/01 A3024 RMK A01 T00160009  RH  096%=      5-min Rain = 0
KAM2 091435Z 15001KT 02/01 A3024 RMK A01 T00170010  RH  095%=      5-min Rain = 0
KAM2 091436Z 16000KT 02/01 A3024 RMK A01 T00190011  RH  095%=      5-min Rain = 0
KAM2 091437Z 17000KT 02/01 A3024 RMK A01 T00210013  RH  094%=      5-min Rain = 0
KAM2 091438Z 14000KT 02/01 A3024 RMK A01 T00230013  RH  094%=      5-min Rain = 0
KAM2 091439Z 16000KT 02/01 A3024 RMK A01 T00240013  RH  093%=      5-min Rain = 0
KAM2 091440Z 16001KT 02/01 A3024 RMK A01 T00240013  RH  092%=      5-min Rain = 0
KAM2 091441Z 17000KT 03/02 A3024 RMK A01 T00250015  RH  093%=      5-min Rain = 0
KAM2 091442Z 16000KT 03/02 A3024 RMK A01 T00270016  RH  093%=      5-min Rain = 0
KAM2 091443Z 14000KT 03/02 A3024 RMK A01 T00290017  RH  092%=      5-min Rain = 0
KAM2 091444Z 00000KT 03/02 A3024 RMK A01 T00300019  RH  092%=      5-min Rain = 0
KAM2 091445Z 00000KT 03/02 A3024 RMK A01 T00330021  RH  092%=      5-min Rain = 0
KAM2 091446Z 00000KT 04/03 A3025 RMK A01 T00360025  RH  093%=      5-min Rain = 0
KAM2 091447Z 00000KT 04/03 A3025 RMK A01 T00390027  RH  092%=      5-min Rain = 0
KAM2 091448Z 00000KT 04/03 A3025 RMK A01 T00430030  RH  091%=      5-min Rain = 0
KAM2 091449Z 16000KT 05/03 A3025 RMK A01 T00470031  RH  090%=      5-min Rain = 0
KAM2 091450Z 00000KT 05/03 A3024 RMK A01 T00500033  RH  088%=      5-min Rain = 0
KAM2 091451Z 00000KT 05/03 A3024 RMK A01 T00520031  RH  086%=      5-min Rain = 0
KAM2 091452Z 20000KT 05/03 A3024 RMK A01 T00520030  RH  085%=      5-min Rain = 0
KAM2 091453Z 20000KT 05/03 A3024 RMK A01 T00510029  RH  086%=      5-min Rain = 0
KAM2 091454Z 19000KT 05/03 A3024 RMK A01 T00500028  RH  086%=      5-min Rain = 0
KAM2 091455Z 00000KT 05/03 A3024 RMK A01 T00510031  RH  087%=      5-min Rain = 0
KAM2 091456Z 00000KT 05/03 A3025 RMK A01 T00530032  RH  086%=      5-min Rain = 0
KAM2 091457Z 00000KT 06/03 A3025 RMK A01 T00550031  RH  085%=      5-min Rain = 0
KAM2 091458Z 00000KT 06/03 A3025 RMK A01 T00560032  RH  085%=      5-min Rain = 0
KAM2 091459Z 09000KT 06/03 A3025 RMK A01 T00570033  RH  084%=      5-min Rain = 0
KAM2 091500Z 00000KT 06/03 A3025 RMK A01 T00580033  RH  084%=      5-min Rain = 0
KAM2 091501Z 36000KT 06/04 A3025 RMK A01 T00600036  RH  085%=      5-min Rain = 0
KAM2 091502Z 02001KT 06/04 A3025 RMK A01 T00610037  RH  085%=      5-min Rain = 0
KAM2 091503Z 35001KT 06/04 A3025 RMK A01 T00610036  RH  084%=      5-min Rain = 0
KAM2 091504Z 34001KT 06/04 A3025 RMK A01 T00600037  RH  085%=      5-min Rain = 0
KAM2 091505Z 33001KT 06/04 A3025 RMK A01 T00600039  RH  086%=      5-min Rain = 0
KAM2 091506Z 33001KT 06/04 A3025 RMK A01 T00600040  RH  087%=      5-min Rain = 0
KAM2 091507Z 30001KT 06/04 A3025 RMK A01 T00600040  RH  087%=      5-min Rain = 0
KAM2 091508Z 31002KT 06/04 A3025 RMK A01 T00610041  RH  087%=      5-min Rain = 0
KAM2 091509Z 28003KT 06/04 A3025 RMK A01 T00610041  RH  087%=      5-min Rain = 0
KAM2 091510Z 26001KT 06/04 A3025 RMK A01 T00610039  RH  086%=      5-min Rain = 0
KAM2 091511Z 23000KT 06/04 A3025 RMK A01 T00610040  RH  086%=      5-min Rain = 0
KAM2 091512Z 31001KT 06/04 A3025 RMK A01 T00620041  RH  086%=      5-min Rain = 0
KAM2 091513Z 31001KT 06/04 A3025 RMK A01 T00630042  RH  087%=      5-min Rain = 0
KAM2 091514Z 33001KT 06/04 A3025 RMK A01 T00630041  RH  086%=      5-min Rain = 0
KAM2 091515Z 30001KT 06/04 A3025 RMK A01 T00620038  RH  085%=      5-min Rain = 0
KAM2 091516Z 34001KT 06/04 A3025 RMK A01 T00620040  RH  086%=      5-min Rain = 0
KAM2 091517Z 35001KT 06/04 A3025 RMK A01 T00630042  RH  086%=      5-min Rain = 0
KAM2 091518Z 34002KT 06/04 A3025 RMK A01 T00640043  RH  086%=      5-min Rain = 0
KAM2 091519Z 34002KT 07/04 A3025 RMK A01 T00650042  RH  085%=      5-min Rain = 0
KAM2 091520Z 34002KT 07/04 A3025 RMK A01 T00660042  RH  085%=      5-min Rain = 0
KAM2 091521Z 32002KT 07/04 A3025 RMK A01 T00660042  RH  085%=      5-min Rain = 0
KAM2 091522Z 33001KT 07/04 A3025 RMK A01 T00660042  RH  084%=      5-min Rain = 0
KAM2 091523Z 33001KT 07/04 A3025 RMK A01 T00670043  RH  085%=      5-min Rain = 0
KAM2 091524Z 33001KT 07/05 A3025 RMK A01 T00680045  RH  085%=      5-min Rain = 0
KAM2 091525Z 31001KT 07/04 A3025 RMK A01 T00690044  RH  084%=      5-min Rain = 0
KAM2 091526Z 30002KT 07/05 A3024 RMK A01 T00700046  RH  085%=      5-min Rain = 0
KAM2 091527Z 31002KT 07/05 A3024 RMK A01 T00720047  RH  084%=      5-min Rain = 0
KAM2 091528Z 28001KT 07/04 A3024 RMK A01 T00720044  RH  082%=      5-min Rain = 0
KAM2 091529Z 28001KT 07/04 A3024 RMK A01 T00730044  RH  082%=      5-min Rain = 0
KAM2 091530Z 23001KT 07/04 A3024 RMK A01 T00740044  RH  082%=      5-min Rain = 0
KAM2 091531Z 29002KT 08/05 A3024 RMK A01 T00770047  RH  082%=      5-min Rain = 0
KAM2 091532Z 27002KT 08/05 A3024 RMK A01 T00780047  RH  081%=      5-min Rain = 0
KAM2 091533Z 27003KT 08/05 A3024 RMK A01 T00780045  RH  080%=      5-min Rain = 0
KAM2 091534Z 28003KT 08/05 A3024 RMK A01 T00780045  RH  079%=      5-min Rain = 0
KAM2 091535Z 28003KT 08/05 A3024 RMK A01 T00790048  RH  081%=      5-min Rain = 0
KAM2 091536Z 28003KT 08/05 A3024 RMK A01 T00800048  RH  080%=      5-min Rain = 0
KAM2 091537Z 28002KT 08/05 A3024 RMK A01 T00810047  RH  079%=      5-min Rain = 0
KAM2 091538Z 30003KT 08/05 A3024 RMK A01 T00820050  RH  080%=      5-min Rain = 0
KAM2 091539Z 30003KT 08/05 A3024 RMK A01 T00830050  RH  079%=      5-min Rain = 0
KAM2 091540Z 27002KT 09/05 A3024 RMK A01 T00850052  RH  080%=      5-min Rain = 0
KAM2 091541Z 24002KT 09/06 A3024 RMK A01 T00880055  RH  080%=      5-min Rain = 0
KAM2 091542Z 25003KT 09/05 A3024 RMK A01 T00890052  RH  077%=      5-min Rain = 0
KAM2 091543Z 25003KT 09/05 A3024 RMK A01 T00910052  RH  077%=      5-min Rain = 0
KAM2 091544Z 28002KT 09/05 A3024 RMK A01 T00910050  RH  075%=      5-min Rain = 0
KAM2 091545Z 34000KT 09/05 A3024 RMK A01 T00910050  RH  075%=      5-min Rain = 0
KAM2 091546Z 32002KT 09/05 A3024 RMK A01 T00910053  RH  077%=      5-min Rain = 0
KAM2 091547Z 28003KT 09/05 A3024 RMK A01 T00910051  RH  076%=      5-min Rain = 0
KAM2 091548Z 27003KT 09/05 A3024 RMK A01 T00920050  RH  075%=      5-min Rain = 0
KAM2 091549Z 29002KT 09/05 A3024 RMK A01 T00930051  RH  075%=      5-min Rain = 0
KAM2 091550Z 29002KT 09/05 A3024 RMK A01 T00930049  RH  074%=      5-min Rain = 0
KAM2 091551Z 26004KT 09/05 A3024 RMK A01 T00930051  RH  075%=      5-min Rain = 0
KAM2 091552Z 26004KT 10/05 A3024 RMK A01 T00950050  RH  074%=      5-min Rain = 0
KAM2 091553Z 27004KT 10/05 A3024 RMK A01 T00960049  RH  072%=      5-min Rain = 0
KAM2 091554Z 29002KT 10/05 A3024 RMK A01 T00980052  RH  073%=      5-min Rain = 0
KAM2 091555Z 34002KT 10/06 A3024 RMK A01 T01000055  RH  074%=      5-min Rain = 0
KAM2 091556Z 01002KT 10/05 A3024 RMK A01 T01010052  RH  072%=      5-min Rain = 0
KAM2 091557Z 32002KT 10/05 A3024 RMK A01 T01010053  RH  072%=      5-min Rain = 0
KAM2 091558Z 32004KT 10/05 A3024 RMK A01 T01020053  RH  071%=      5-min Rain = 0
KAM2 091559Z 32003KT 10/05 A3024 RMK A01 T01030052  RH  071%=      5-min Rain = 0
KAM2 091600Z 32003KT 10/05 A3024 RMK A01 T01040051  RH  070%=      5-min Rain = 0
KAM2 091601Z 32005KT 10/05 A3024 RMK A01 T01040051  RH  070%=      5-min Rain = 0
KAM2 091602Z 31004KT 10/05 A3024 RMK A01 T01040050  RH  069%=      5-min Rain = 0
KAM2 091603Z 30002KT 11/05 A3024 RMK A01 T01050050  RH  068%=      5-min Rain = 0
KAM2 091604Z 28002KT 11/05 A3024 RMK A01 T01060052  RH  069%=      5-min Rain = 0
KAM2 091605Z 26003KT 11/05 A3024 RMK A01 T01070053  RH  069%=      5-min Rain = 0
KAM2 091606Z 29003KT 11/06 A3024 RMK A01 T01100056  RH  069%=      5-min Rain = 0
KAM2 091607Z 30002KT 11/05 A3024 RMK A01 T01110053  RH  067%=      5-min Rain = 0
KAM2 091608Z 28003KT 11/05 A3024 RMK A01 T01120052  RH  067%=      5-min Rain = 0
KAM2 091609Z 31004KT 11/05 A3024 RMK A01 T01120051  RH  066%=      5-min Rain = 0
KAM2 091610Z 31003KT 11/05 A3024 RMK A01 T01120051  RH  066%=      5-min Rain = 0
KAM2 091611Z 32004KT 11/05 A3024 RMK A01 T01130052  RH  066%=      5-min Rain = 0
KAM2 091612Z 32003KT 11/05 A3024 RMK A01 T01140052  RH  066%=      5-min Rain = 0
KAM2 091613Z 34003KT 12/05 A3024 RMK A01 T01160053  RH  065%=      5-min Rain = 0
KAM2 091614Z 32003KT 12/05 A3024 RMK A01 T01170052  RH  064%=      5-min Rain = 0
KAM2 091615Z 32004KT 12/05 A3024 RMK A01 T01180051  RH  063%=      5-min Rain = 0
KAM2 091616Z 31004KT 12/05 A3024 RMK A01 T01180049  RH  063%=      5-min Rain = 0
KAM2 091617Z 31003KT 12/05 A3024 RMK A01 T01180050  RH  063%=      5-min Rain = 0
KAM2 091618Z 31003KT 12/05 A3024 RMK A01 T01180051  RH  063%=      5-min Rain = 0
KAM2 091619Z 31002KT 12/05 A3024 RMK A01 T01200051  RH  063%=      5-min Rain = 0
KAM2 091620Z 30003KT 12/05 A3024 RMK A01 T01200051  RH  062%=      5-min Rain = 0
KAM2 091621Z 31004KT 12/05 A3024 RMK A01 T01200052  RH  063%=      5-min Rain = 0
KAM2 091622Z 32004KT 12/05 A3024 RMK A01 T01210052  RH  063%=      5-min Rain = 0
KAM2 091623Z 31003KT 12/05 A3024 RMK A01 T01230051  RH  062%=      5-min Rain = 0
KAM2 091624Z 32004KT 12/05 A3024 RMK A01 T01230052  RH  062%=      5-min Rain = 0
KAM2 091625Z 33004KT 12/05 A3024 RMK A01 T01240051  RH  061%=      5-min Rain = 0
KAM2 091626Z 32005KT 13/05 A3024 RMK A01 T01250051  RH  061%=      5-min Rain = 0
KAM2 091627Z 34004KT 12/05 A3024 RMK A01 T01240050  RH  061%=      5-min Rain = 0
KAM2 091628Z 31005KT 12/05 A3024 RMK A01 T01240051  RH  061%=      5-min Rain = 0
KAM2 091629Z 31005KT 13/05 A3024 RMK A01 T01250051  RH  061%=      5-min Rain = 0
KAM2 091630Z 30005KT 13/05 A3024 RMK A01 T01260051  RH  060%=      5-min Rain = 0
KAM2 091631Z 29004KT 13/05 A3023 RMK A01 T01270051  RH  060%=      5-min Rain = 0
KAM2 091632Z 27003KT 13/05 A3023 RMK A01 T01280052  RH  060%=      5-min Rain = 0
KAM2 091633Z 29004KT 13/06 A3023 RMK A01 T01310056  RH  061%=      5-min Rain = 0
KAM2 091634Z 30006KT 13/06 A3023 RMK A01 T01340056  RH  059%=      5-min Rain = 0
KAM2 091635Z 30006KT 14/05 A3023 RMK A01 T01360054  RH  058%=      5-min Rain = 0
KAM2 091636Z 30006KT 14/05 A3023 RMK A01 T01360053  RH  057%=      5-min Rain = 0
KAM2 091637Z 29007KT 14/05 A3023 RMK A01 T01360051  RH  057%=      5-min Rain = 0
KAM2 091638Z 30005KT 14/05 A3023 RMK A01 T01350051  RH  057%=      5-min Rain = 0
KAM2 091639Z 30006KT 14/05 A3023 RMK A01 T01350051  RH  057%=      5-min Rain = 0
KAM2 091640Z 29005KT 13/05 A3023 RMK A01 T01340050  RH  057%=      5-min Rain = 0
KAM2 091641Z 28004KT 13/05 A3023 RMK A01 T01340049  RH  056%=      5-min Rain = 0
KAM2 091642Z 28003KT 13/05 A3023 RMK A01 T01330049  RH  057%=      5-min Rain = 0
KAM2 091643Z 30004KT 13/05 A3023 RMK A01 T01340052  RH  057%=      5-min Rain = 0
KAM2 091644Z 30005KT 14/05 A3023 RMK A01 T01360054  RH  057%=      5-min Rain = 0
KAM2 091645Z 31007KT 14/05 A3023 RMK A01 T01390053  RH  056%=      5-min Rain = 0
KAM2 091646Z 30007KT 14/05 A3023 RMK A01 T01400053  RH  056%=      5-min Rain = 0
KAM2 091647Z 30006KT 14/05 A3023 RMK A01 T01410052  RH  055%=      5-min Rain = 0
KAM2 091648Z 30006KT 14/05 A3023 RMK A01 T01410052  RH  055%=      5-min Rain = 0
KAM2 091649Z 30006KT 14/05 A3023 RMK A01 T01410052  RH  055%=      5-min Rain = 0
KAM2 091650Z 31004KT 14/05 A3023 RMK A01 T01410053  RH  055%=      5-min Rain = 0
KAM2 091651Z 30006KT 14/06 A3023 RMK A01 T01430055  RH  055%=      5-min Rain = 0
KAM2 091652Z 30005KT 14/05 A3023 RMK A01 T01440053  RH  054%=      5-min Rain = 0
KAM2 091653Z 29005KT 15/05 A3023 RMK A01 T01450053  RH  054%=      5-min Rain = 0
KAM2 091654Z 28005KT 14/05 A3023 RMK A01 T01440053  RH  054%=      5-min Rain = 0
KAM2 091655Z 28005KT 14/05 A3023 RMK A01 T01430052  RH  055%=      5-min Rain = 0
KAM2 091656Z 31005KT 14/05 A3023 RMK A01 T01410051  RH  054%=      5-min Rain = 0
KAM2 091657Z 30005KT 14/05 A3023 RMK A01 T01420051  RH  054%=      5-min Rain = 0
KAM2 091658Z 29004KT 14/05 A3023 RMK A01 T01420052  RH  055%=      5-min Rain = 0
KAM2 091659Z 31004KT 14/05 A3023 RMK A01 T01420052  RH  055%=      5-min Rain = 0
KAM2 091700Z 31006KT 15/05 A3023 RMK A01 T01450054  RH  054%=      5-min Rain = 0
KAM2 091701Z 30006KT 15/06 A3023 RMK A01 T01460055  RH  054%=      5-min Rain = 0
KAM2 091702Z 30006KT 15/05 A3023 RMK A01 T01480053  RH  053%=      5-min Rain = 0
KAM2 091703Z 30004KT 15/05 A3023 RMK A01 T01500054  RH  053%=      5-min Rain = 0
KAM2 091704Z 30005KT 15/05 A3023 RMK A01 T01510054  RH  052%=      5-min Rain = 0
KAM2 091705Z 30005KT 15/05 A3023 RMK A01 T01520054  RH  052%=      5-min Rain = 0
KAM2 091706Z 29006KT 15/05 A3023 RMK A01 T01520052  RH  051%=      5-min Rain = 0
KAM2 091707Z 30005KT 15/05 A3023 RMK A01 T01520052  RH  051%=      5-min Rain = 0
KAM2 091708Z 31004KT 15/05 A3023 RMK A01 T01530052  RH  051%=      5-min Rain = 0
KAM2 091709Z 31005KT 15/05 A3023 RMK A01 T01530053  RH  051%=      5-min Rain = 0
KAM2 091710Z 30005KT 15/06 A3023 RMK A01 T01540055  RH  051%=      5-min Rain = 0
KAM2 091711Z 31004KT 15/05 A3023 RMK A01 T01540052  RH  050%=      5-min Rain = 0
KAM2 091712Z 27004KT 15/05 A3023 RMK A01 T01540052  RH  051%=      5-min Rain = 0
KAM2 091713Z 27002KT 16/05 A3023 RMK A01 T01560050  RH  049%=      5-min Rain = 0
KAM2 091714Z 26004KT 16/05 A3023 RMK A01 T01570050  RH  049%=      5-min Rain = 0
KAM2 091715Z 29004KT 16/05 A3022 RMK A01 T01590050  RH  048%=      5-min Rain = 0
KAM2 091716Z 30004KT 16/05 A3022 RMK A01 T01590053  RH  049%=      5-min Rain = 0
KAM2 091717Z 27006KT 16/05 A3022 RMK A01 T01620052  RH  048%=      5-min Rain = 0
KAM2 091718Z 27004KT 16/05 A3022 RMK A01 T01610051  RH  048%=      5-min Rain = 0
KAM2 091719Z 26004KT 16/05 A3022 RMK A01 T01600051  RH  048%=      5-min Rain = 0
KAM2 091720Z 27005KT 16/05 A3022 RMK A01 T01610051  RH  048%=      5-min Rain = 0
KAM2 091721Z 27002KT 16/05 A3022 RMK A01 T01600049  RH  048%=      5-min Rain = 0
KAM2 091722Z 26004KT 16/05 A3022 RMK A01 T01600050  RH  048%=      5-min Rain = 0
KAM2 091723Z 26004KT 16/05 A3022 RMK A01 T01610050  RH  048%=      5-min Rain = 0
KAM2 091724Z 27003KT 16/05 A3022 RMK A01 T01610050  RH  048%=      5-min Rain = 0
KAM2 091725Z 29003KT 16/05 A3022 RMK A01 T01610051  RH  048%=      5-min Rain = 0
KAM2 091726Z 28003KT 16/05 A3022 RMK A01 T01620052  RH  048%=      5-min Rain = 0
KAM2 091727Z 27004KT 17/05 A3022 RMK A01 T01650050  RH  047%=      5-min Rain = 0
KAM2 091728Z 27005KT 17/05 A3022 RMK A01 T01670050  RH  046%=      5-min Rain = 0
KAM2 091729Z 25003KT 17/05 A3022 RMK A01 T01680048  RH  045%=      5-min Rain = 0
KAM2 091730Z 29003KT 17/05 A3021 RMK A01 T01650048  RH  046%=      5-min Rain = 0
KAM2 091731Z 30003KT 17/05 A3021 RMK A01 T01650050  RH  046%=      5-min Rain = 0
KAM2 091732Z 29004KT 17/05 A3021 RMK A01 T01660050  RH  046%=      5-min Rain = 0
KAM2 091733Z 30002KT 17/05 A3021 RMK A01 T01660053  RH  047%=      5-min Rain = 0
KAM2 091734Z 28004KT 17/05 A3021 RMK A01 T01690053  RH  046%=      5-min Rain = 0
KAM2 091735Z 32004KT 17/05 A3021 RMK A01 T01690050  RH  045%=      5-min Rain = 0
KAM2 091736Z 27006KT 17/05 A3021 RMK A01 T01690050  RH  045%=      5-min Rain = 0
KAM2 091737Z 25004KT 17/05 A3021 RMK A01 T01720048  RH  044%=      5-min Rain = 0
KAM2 091738Z 27004KT 17/05 A3021 RMK A01 T01730047  RH  043%=      5-min Rain = 0
KAM2 091739Z 29003KT 17/05 A3021 RMK A01 T01730046  RH  043%=      5-min Rain = 0
KAM2 091740Z 27004KT 17/05 A3021 RMK A01 T01720045  RH  043%=      5-min Rain = 0
KAM2 091741Z 26004KT 17/05 A3021 RMK A01 T01730046  RH  043%=      5-min Rain = 0
KAM2 091742Z 26003KT 17/05 A3021 RMK A01 T01740046  RH  043%=      5-min Rain = 0
KAM2 091743Z 28003KT 17/05 A3021 RMK A01 T01740048  RH  043%=      5-min Rain = 0
KAM2 091744Z 29003KT 18/05 A302 RMK A01 T01750047  RH  043%=      5-min Rain = 0
KAM2 091745Z 27005KT 18/05 A302 RMK A01 T01760049  RH  043%=      5-min Rain = 0
KAM2 091746Z 25004KT 18/05 A302 RMK A01 T01770049  RH  043%=      5-min Rain = 0
KAM2 091747Z 24003KT 18/05 A302 RMK A01 T01780049  RH  042%=      5-min Rain = 0
KAM2 091748Z 27002KT 18/05 A302 RMK A01 T01790049  RH  042%=      5-min Rain = 0
KAM2 091749Z 26003KT 18/05 A302 RMK A01 T01800048  RH  042%=      5-min Rain = 0
KAM2 091750Z 25003KT 18/05 A302 RMK A01 T01800048  RH  042%=      5-min Rain = 0
KAM2 091751Z 28001KT 18/05 A302 RMK A01 T01800047  RH  041%=      5-min Rain = 0
KAM2 091752Z 27003KT 18/05 A302 RMK A01 T01820051  RH  042%=      5-min Rain = 0
KAM2 091753Z 27005KT 18/05 A302 RMK A01 T01840051  RH  041%=      5-min Rain = 0
KAM2 091754Z 28004KT 19/05 A302 RMK A01 T01850051  RH  041%=      5-min Rain = 0
KAM2 091755Z 30003KT 19/05 A302 RMK A01 T01860050  RH  041%=      5-min Rain = 0
KAM2 091756Z 31003KT 19/05 A302 RMK A01 T01870050  RH  040%=      5-min Rain = 0
KAM2 091757Z 31003KT 19/05 A302 RMK A01 T01880050  RH  040%=      5-min Rain = 0
KAM2 091758Z 27003KT 19/05 A302 RMK A01 T01880048  RH  040%=      5-min Rain = 0
KAM2 091759Z 27003KT 19/05 A302 RMK A01 T01880048  RH  040%=      5-min Rain = 0
KAM2 091800Z 29002KT 19/05 A302 RMK A01 T01880048  RH  040%=      5-min Rain = 0
KAM2 091801Z 28001KT 19/05 A302 RMK A01 T01880047  RH  039%=      5-min Rain = 0
KAM2 091802Z 24000KT 19/05 A302 RMK A01 T01890049  RH  040%=      5-min Rain = 0
KAM2 091803Z 33002KT 19/05 A302 RMK A01 T01910048  RH  039%=      5-min Rain = 0
KAM2 091804Z 35001KT 19/05 A302 RMK A01 T01920049  RH  039%=      5-min Rain = 0
KAM2 091805Z 27001KT 19/05 A302 RMK A01 T01940050  RH  039%=      5-min Rain = 0
KAM2 091806Z 34002KT 20/05 A3019 RMK A01 T01960050  RH  038%=      5-min Rain = 0
KAM2 091807Z 33001KT 20/05 A3019 RMK A01 T01980051  RH  038%=      5-min Rain = 0
KAM2 091808Z 23003KT 20/05 A3019 RMK A01 T02000051  RH  038%=      5-min Rain = 0
KAM2 091809Z 19003KT 20/05 A3019 RMK A01 T02020050  RH  037%=      5-min Rain = 0
KAM2 091810Z 25003KT 20/05 A3019 RMK A01 T02020048  RH  036%=      5-min Rain = 0
KAM2 091811Z 26004KT 20/05 A3019 RMK A01 T02020049  RH  037%=      5-min Rain = 0
KAM2 091812Z 24004KT 20/05 A3019 RMK A01 T02020049  RH  036%=      5-min Rain = 0
KAM2 091813Z 23003KT 20/05 A3019 RMK A01 T02030047  RH  036%=      5-min Rain = 0
KAM2 091814Z 31001KT 20/04 A3019 RMK A01 T02030043  RH  035%=      5-min Rain = 0
KAM2 091815Z 33001KT 20/04 A3019 RMK A01 T02020043  RH  035%=      5-min Rain = 0
KAM2 091816Z 23002KT 20/05 A3019 RMK A01 T02020047  RH  036%=      5-min Rain = 0
KAM2 091817Z 24003KT 20/05 A3019 RMK A01 T02030046  RH  035%=      5-min Rain = 0
KAM2 091818Z 27002KT 20/05 A3019 RMK A01 T02030045  RH  035%=      5-min Rain = 0
KAM2 091819Z 24002KT 20/05 A3018 RMK A01 T02010046  RH  036%=      5-min Rain = 0
KAM2 091820Z 21002KT 20/05 A3018 RMK A01 T02020046  RH  036%=      5-min Rain = 0
KAM2 091821Z 22001KT 20/05 A3018 RMK A01 T02020046  RH  036%=      5-min Rain = 0
KAM2 091822Z 21001KT 20/05 A3018 RMK A01 T02030046  RH  036%=      5-min Rain = 0
KAM2 091823Z 25002KT 20/05 A3018 RMK A01 T02040051  RH  037%=      5-min Rain = 0
KAM2 091824Z 24002KT 21/05 A3018 RMK A01 T02060049  RH  036%=      5-min Rain = 0
KAM2 091825Z 24005KT 21/04 A3018 RMK A01 T02080042  RH  034%=      5-min Rain = 0
KAM2 091826Z 24003KT 21/04 A3018 RMK A01 T02080042  RH  034%=      5-min Rain = 0
KAM2 091827Z 22004KT 21/05 A3018 RMK A01 T02090045  RH  034%=      5-min Rain = 0
KAM2 091828Z 24002KT 21/05 A3018 RMK A01 T02100045  RH  034%=      5-min Rain = 0
KAM2 091829Z 22003KT 21/05 A3018 RMK A01 T02090045  RH  034%=      5-min Rain = 0
KAM2 091830Z 19001KT 21/04 A3018 RMK A01 T02080043  RH  034%=      5-min Rain = 0
KAM2 091831Z 33000KT 21/04 A3018 RMK A01 T02080042  RH  034%=      5-min Rain = 0
KAM2 091832Z 31003KT 21/04 A3017 RMK A01 T02080043  RH  034%=      5-min Rain = 0
KAM2 091833Z 30002KT 21/04 A3017 RMK A01 T02090042  RH  033%=      5-min Rain = 0
KAM2 091834Z 25003KT 21/04 A3017 RMK A01 T02090044  RH  034%=      5-min Rain = 0
KAM2 091835Z 26003KT 21/04 A3017 RMK A01 T02090044  RH  034%=      5-min Rain = 0
KAM2 091836Z 29003KT 21/04 A3017 RMK A01 T02100043  RH  033%=      5-min Rain = 0
KAM2 091837Z 25003KT 21/05 A3017 RMK A01 T02120046  RH  034%=      5-min Rain = 0
KAM2 091838Z 22003KT 22/05 A3017 RMK A01 T02150046  RH  033%=      5-min Rain = 0
KAM2 091839Z 18003KT 22/05 A3017 RMK A01 T02180046  RH  033%=      5-min Rain = 0
KAM2 091840Z 17003KT 22/05 A3017 RMK A01 T02200045  RH  032%=      5-min Rain = 0
KAM2 091841Z 16001KT 22/04 A3017 RMK A01 T02210042  RH  031%=      5-min Rain = 0
KAM2 091842Z 13001KT 22/04 A3016 RMK A01 T02210042  RH  031%=      5-min Rain = 0
KAM2 091843Z 20002KT 22/04 A3016 RMK A01 T02220043  RH  031%=      5-min Rain = 0
KAM2 091844Z 19004KT 22/04 A3016 RMK A01 T02230043  RH  031%=      5-min Rain = 0
KAM2 091845Z 17005KT 23/04 A3016 RMK A01 T02260040  RH  030%=      5-min Rain = 0
KAM2 091846Z 20005KT 23/04 A3016 RMK A01 T02250037  RH  029%=      5-min Rain = 0
KAM2 091847Z 21005KT 22/03 A3016 RMK A01 T02240031  RH  028%=      5-min Rain = 0
KAM2 091848Z 22004KT 23/03 A3016 RMK A01 T02250027  RH  027%=      5-min Rain = 0
KAM2 091849Z 22004KT 23/03 A3016 RMK A01 T02250025  RH  027%=      5-min Rain = 0
KAM2 091850Z 20003KT 23/03 A3016 RMK A01 T02250028  RH  027%=      5-min Rain = 0
KAM2 091851Z 20003KT 22/03 A3016 RMK A01 T02240034  RH  029%=      5-min Rain = 0
KAM2 091852Z 16005KT 22/04 A3016 RMK A01 T02230035  RH  029%=      5-min Rain = 0
KAM2 091853Z 14004KT 22/03 A3015 RMK A01 T02240034  RH  029%=      5-min Rain = 0
KAM2 091854Z 18002KT 23/03 A3015 RMK A01 T02250031  RH  028%=      5-min Rain = 0
KAM2 091855Z 22003KT 23/03 A3015 RMK A01 T02270032  RH  028%=      5-min Rain = 0
KAM2 091856Z 16004KT 23/03 A3015 RMK A01 T02290030  RH  027%=      5-min Rain = 0
KAM2 091857Z 15006KT 23/03 A3015 RMK A01 T02320026  RH  026%=      5-min Rain = 0
KAM2 091858Z 18007KT 24/01 A3015 RMK A01 T02350014  RH  023%=      5-min Rain = 0
KAM2 091859Z 17004KT 24/M00 A3015 RMK A01 T02371002  RH  021%=      5-min Rain = 0
KAM2 091900Z 18008KT 24/M01 A3015 RMK A01 T02381009  RH  019%=      5-min Rain = 0
KAM2 091901Z 18007KT 24/M03 A3015 RMK A01 T02371026  RH  017%=      5-min Rain = 0
KAM2 091902Z 18008KT 24/M02 A3015 RMK A01 T02361024  RH  018%=      5-min Rain = 0
KAM2 091903Z 19006KT 24/M03 A3015 RMK A01 T02381027  RH  017%=      5-min Rain = 0
KAM2 091904Z 20005KT 24/M03 A3015 RMK A01 T02371028  RH  017%=      5-min Rain = 0
KAM2 091905Z 21006KT 24/M02 A3015 RMK A01 T02371021  RH  018%=      5-min Rain = 0
KAM2 091906Z 21009KT 24/M02 A3015 RMK A01 T02401020  RH  018%=      5-min Rain = 0
KAM2 091907Z 22008KT 24/M03 A3015 RMK A01 T02401026  RH  017%=      5-min Rain = 0
KAM2 091908Z 22009KT 24/M03 A3015 RMK A01 T02381029  RH  017%=      5-min Rain = 0
KAM2 091909Z 22007KT 24/M03 A3015 RMK A01 T02361030  RH  017%=      5-min Rain = 0
KAM2 091910Z 21008KT 24/M03 A3015 RMK A01 T02351030  RH  017%=      5-min Rain = 0
KAM2 091911Z 20005KT 23/M03 A3014 RMK A01 T02341033  RH  017%=      5-min Rain = 0
KAM2 091912Z 20006G11KT 23/M03 A3014 RMK A01 T02341030  RH  017%=      5-min Rain = 0
KAM2 091913Z 20006KT 24/M03 A3014 RMK A01 T02371029  RH  017%=      5-min Rain = 0
KAM2 091914Z 21008KT 24/M03 A3014 RMK A01 T02401025  RH  017%=      5-min Rain = 0
KAM2 091915Z 21011KT 24/M03 A3014 RMK A01 T02421032  RH  016%=      5-min Rain = 0
KAM2 091916Z 19009KT 24/M05 A3014 RMK A01 T02411045  RH  015%=      5-min Rain = 0
KAM2 091917Z 20011G16KT 24/M03 A3014 RMK A01 T02381034  RH  016%=      5-min Rain = 0
KAM2 091918Z 20012KT 24/M03 A3014 RMK A01 T02391030  RH  017%=      5-min Rain = 0
KAM2 091919Z 20012KT 24/M03 A3014 RMK A01 T02381026  RH  017%=      5-min Rain = 0
KAM2 091920Z 19011KT 24/M02 A3014 RMK A01 T02371022  RH  018%=      5-min Rain = 0
KAM2 091921Z 20011KT 24/M02 A3014 RMK A01 T02371023  RH  018%=      5-min Rain = 0
KAM2 091922Z 19011KT 24/M02 A3014 RMK A01 T02361024  RH  018%=      5-min Rain = 0
KAM2 091923Z 20006KT 23/M02 A3014 RMK A01 T02341020  RH  018%=      5-min Rain = 0
KAM2 091924Z 19006KT 23/M02 A3014 RMK A01 T02341023  RH  018%=      5-min Rain = 0
KAM2 091925Z 21006KT 24/M02 A3014 RMK A01 T02351021  RH  018%=      5-min Rain = 0
KAM2 091926Z 22008KT 24/M04 A3014 RMK A01 T02371036  RH  016%=      5-min Rain = 0
KAM2 091927Z 23007KT 24/M03 A3014 RMK A01 T02381032  RH  016%=      5-min Rain = 0
KAM2 091928Z 22011KT 24/M02 A3013 RMK A01 T02361019  RH  018%=      5-min Rain = 0
KAM2 091929Z 22008KT 24/M02 A3013 RMK A01 T02371016  RH  019%=      5-min Rain = 0
KAM2 091930Z 22009KT 24/M02 A3013 RMK A01 T02381018  RH  018%=      5-min Rain = 0
KAM2 091931Z 22009KT 24/M02 A3013 RMK A01 T02361016  RH  019%=      5-min Rain = 0
KAM2 091932Z 23010KT 24/M01 A3013 RMK A01 T02351014  RH  019%=      5-min Rain = 0
KAM2 091933Z 22008KT 24/M02 A3013 RMK A01 T02351018  RH  019%=      5-min Rain = 0
KAM2 091934Z 23007G12KT 24/M02 A3013 RMK A01 T02351019  RH  018%=      5-min Rain = 0
KAM2 091935Z 21010KT 24/M02 A3013 RMK A01 T02361017  RH  019%=      5-min Rain = 0
KAM2 091936Z 20009KT 24/M02 A3013 RMK A01 T02391019  RH  018%=      5-min Rain = 0
KAM2 091937Z 21010KT 24/M02 A3013 RMK A01 T02401021  RH  018%=      5-min Rain = 0
KAM2 091938Z 20008KT 24/M03 A3013 RMK A01 T02401028  RH  017%=      5-min Rain = 0
KAM2 091939Z 20007G13KT 24/M04 A3013 RMK A01 T02381037  RH  016%=      5-min Rain = 0
KAM2 091940Z 20012KT 24/M03 A3013 RMK A01 T02371033  RH  016%=      5-min Rain = 0
KAM2 091941Z 20010KT 24/M03 A3013 RMK A01 T02371030  RH  017%=      5-min Rain = 0
KAM2 091942Z 19007KT 24/M03 A3013 RMK A01 T02371026  RH  017%=      5-min Rain = 0
KAM2 091943Z 19009KT 24/M02 A3012 RMK A01 T02391023  RH  017%=      5-min Rain = 0
KAM2 091944Z 19009KT 24/M03 A3013 RMK A01 T02401025  RH  017%=      5-min Rain = 0
KAM2 091945Z 19009KT 24/M03 A3012 RMK A01 T02401028  RH  017%=      5-min Rain = 0
KAM2 091946Z 21008KT 24/M03 A3012 RMK A01 T02401027  RH  017%=      5-min Rain = 0
KAM2 091947Z 21004KT 24/M03 A3012 RMK A01 T02381027  RH  017%=      5-min Rain = 0
KAM2 091948Z 20007KT 24/M03 A3012 RMK A01 T02381027  RH  017%=      5-min Rain = 0
KAM2 091949Z 18010KT 24/M04 A3012 RMK A01 T02401038  RH  016%=      5-min Rain = 0
KAM2 091950Z 19011KT 24/M04 A3012 RMK A01 T02401043  RH  015%=      5-min Rain = 0
KAM2 091951Z 20012KT 24/M05 A3012 RMK A01 T02411046  RH  015%=      5-min Rain = 0
KAM2 091952Z 20010KT 24/M05 A3012 RMK A01 T02411050  RH  014%=      5-min Rain = 0
KAM2 091953Z 19008KT 24/M05 A3012 RMK A01 T02401045  RH  015%=      5-min Rain = 0
KAM2 091954Z 19009KT 24/M04 A3012 RMK A01 T02401039  RH  015%=      5-min Rain = 0
KAM2 091955Z 21009KT 24/M03 A3012 RMK A01 T02411033  RH  016%=      5-min Rain = 0
KAM2 091956Z 21008KT 24/M03 A3012 RMK A01 T02431034  RH  016%=      5-min Rain = 0
KAM2 091957Z 19008KT 24/M04 A3012 RMK A01 T02431035  RH  016%=      5-min Rain = 0
KAM2 091958Z 19006KT 24/M04 A3012 RMK A01 T02411039  RH  015%=      5-min Rain = 0
KAM2 091959Z 22007KT 24/M04 A3012 RMK A01 T02411036  RH  016%=      5-min Rain = 0
KAM2 092000Z 22007KT 24/M04 A3012 RMK A01 T02421035  RH  016%=      5-min Rain = 0
KAM2 092001Z 20008KT 24/M03 A3011 RMK A01 T02421033  RH  016%=      5-min Rain = 0
KAM2 092002Z 19009KT 24/M04 A3011 RMK A01 T02421039  RH  015%=      5-min Rain = 0
KAM2 092003Z 17007KT 24/M03 A3011 RMK A01 T02421032  RH  016%=      5-min Rain = 0
KAM2 092004Z 19010KT 24/M03 A3011 RMK A01 T02431032  RH  016%=      5-min Rain = 0
KAM2 092005Z 20013KT 25/M03 A3011 RMK A01 T02451034  RH  016%=      5-min Rain = 0
KAM2 092006Z 21010KT 24/M05 A3011 RMK A01 T02421046  RH  014%=      5-min Rain = 0
KAM2 092007Z 20009KT 24/M05 A3011 RMK A01 T02401050  RH  014%=      5-min Rain = 0
KAM2 092008Z 19008KT 24/M05 A3011 RMK A01 T02401046  RH  015%=      5-min Rain = 0
KAM2 092009Z 20007KT 24/M05 A3011 RMK A01 T02401045  RH  015%=      5-min Rain = 0
KAM2 092010Z 22007G13KT 24/M04 A3011 RMK A01 T02411041  RH  015%=      5-min Rain = 0
KAM2 092011Z 22009KT 24/M04 A3011 RMK A01 T02431044  RH  014%=      5-min Rain = 0
KAM2 092012Z 22007KT 24/M05 A3011 RMK A01 T02431049  RH  014%=      5-min Rain = 0
KAM2 092013Z 20008KT 24/M05 A3011 RMK A01 T02411047  RH  014%=      5-min Rain = 0
KAM2 092014Z 20007KT 24/M04 A3011 RMK A01 T02411039  RH  015%=      5-min Rain = 0
KAM2 092015Z 20009KT 24/M04 A3011 RMK A01 T02421035  RH  016%=      5-min Rain = 0
KAM2 092016Z 20008KT 24/M04 A3011 RMK A01 T02431035  RH  016%=      5-min Rain = 0
KAM2 092017Z 20009KT 24/M04 A3011 RMK A01 T02431036  RH  015%=      5-min Rain = 0
KAM2 092018Z 19011KT 24/M04 A3011 RMK A01 T02431042  RH  015%=      5-min Rain = 0
KAM2 092019Z 19009KT 24/M04 A3011 RMK A01 T02431043  RH  015%=      5-min Rain = 0
KAM2 092020Z 18009KT 24/M05 A3011 RMK A01 T02411045  RH  015%=      5-min Rain = 0
KAM2 092021Z 19011KT 24/M05 A3011 RMK A01 T02411047  RH  014%=      5-min Rain = 0
KAM2 092022Z 19010KT 24/M05 A3011 RMK A01 T02411054  RH  014%=      5-min Rain = 0
KAM2 092023Z 18010KT 24/M06 A3011 RMK A01 T02421064  RH  013%=      5-min Rain = 0
KAM2 092024Z 20010KT 24/M06 A3011 RMK A01 T02421057  RH  013%=      5-min Rain = 0
KAM2 092025Z 20010KT 24/M05 A3011 RMK A01 T02411052  RH  014%=      5-min Rain = 0
KAM2 092026Z 20012KT 24/M05 A3011 RMK A01 T02411050  RH  014%=      5-min Rain = 0
KAM2 092027Z 19008KT 24/M05 A3011 RMK A01 T02401052  RH  014%=      5-min Rain = 0
KAM2 092028Z 17007KT 24/M05 A301 RMK A01 T02411052  RH  014%=      5-min Rain = 0
KAM2 092029Z 21007KT 24/M05 A301 RMK A01 T02411053  RH  014%=      5-min Rain = 0
KAM2 092030Z 23008KT 24/M05 A301 RMK A01 T02421054  RH  014%=      5-min Rain = 0
KAM2 092031Z 22007KT 24/M05 A301 RMK A01 T02411054  RH  014%=      5-min Rain = 0
KAM2 092032Z 21005KT 24/M05 A301 RMK A01 T02401049  RH  014%=      5-min Rain = 0
KAM2 092033Z 19012KT 24/M05 A301 RMK A01 T02431045  RH  014%=      5-min Rain = 0
KAM2 092034Z 19014KT 25/M05 A301 RMK A01 T02461050  RH  014%=      5-min Rain = 0
KAM2 092035Z 19012KT 24/M04 A301 RMK A01 T02441042  RH  015%=      5-min Rain = 0
KAM2 092036Z 18011KT 24/M04 A301 RMK A01 T02421038  RH  015%=      5-min Rain = 0
KAM2 092037Z 19011KT 24/M04 A301 RMK A01 T02411036  RH  016%=      5-min Rain = 0
KAM2 092038Z 19011KT 24/M04 A301 RMK A01 T02411036  RH  016%=      5-min Rain = 0
KAM2 092039Z 20008KT 24/M04 A301 RMK A01 T02401036  RH  016%=      5-min Rain = 0
KAM2 092040Z 18008KT 24/M04 A301 RMK A01 T02401038  RH  015%=      5-min Rain = 0
KAM2 092041Z 19010KT 24/M04 A301 RMK A01 T02411038  RH  015%=      5-min Rain = 0
KAM2 092042Z 19011KT 24/M04 A301 RMK A01 T02431041  RH  015%=      5-min Rain = 0
KAM2 092043Z 18008KT 24/M04 A301 RMK A01 T02431043  RH  015%=      5-min Rain = 0
KAM2 092044Z 18010KT 24/M04 A301 RMK A01 T02441043  RH  015%=      5-min Rain = 0
KAM2 092045Z 18010KT 24/M04 A301 RMK A01 T02441042  RH  015%=      5-min Rain = 0
KAM2 092046Z 18008KT 24/M04 A301 RMK A01 T02431036  RH  015%=      5-min Rain = 0
KAM2 092047Z 19007KT 24/M03 A301 RMK A01 T02431030  RH  016%=      5-min Rain = 0
KAM2 092048Z 20007KT 25/M03 A301 RMK A01 T02451028  RH  016%=      5-min Rain = 0
KAM2 092049Z 20009KT 25/M03 A301 RMK A01 T02481028  RH  016%=      5-min Rain = 0
KAM2 092050Z 22009KT 25/M04 A301 RMK A01 T02471038  RH  015%=      5-min Rain = 0
KAM2 092051Z 22008KT 25/M05 A301 RMK A01 T02461045  RH  014%=      5-min Rain = 0
KAM2 092052Z 20008KT 24/M04 A301 RMK A01 T02441044  RH  014%=      5-min Rain = 0
KAM2 092053Z 20006KT 24/M04 A301 RMK A01 T02441039  RH  015%=      5-min Rain = 0
KAM2 092054Z 19009KT 25/M04 A301 RMK A01 T02461035  RH  015%=      5-min Rain = 0
KAM2 092055Z 21010KT 25/M04 A301 RMK A01 T02481035  RH  015%=      5-min Rain = 0
KAM2 092056Z 19009KT 25/M04 A301 RMK A01 T02471037  RH  015%=      5-min Rain = 0
KAM2 092057Z 21009KT 25/M04 A301 RMK A01 T02461038  RH  015%=      5-min Rain = 0
KAM2 092058Z 20009KT 25/M04 A3009 RMK A01 T02461038  RH  015%=      5-min Rain = 0
KAM2 092059Z 21007KT 24/M04 A3009 RMK A01 T02441036  RH  015%=      5-min Rain = 0
KAM2 092100Z 22008KT 24/M03 A3009 RMK A01 T02441033  RH  016%=      5-min Rain = 0
KAM2 092101Z 20006KT 25/M03 A3009 RMK A01 T02451033  RH  016%=      5-min Rain = 0
KAM2 092102Z 19007KT 25/M03 A3009 RMK A01 T02451030  RH  016%=      5-min Rain = 0
KAM2 092103Z 19006KT 25/M03 A3009 RMK A01 T02461029  RH  016%=      5-min Rain = 0
KAM2 092104Z 20010KT 25/M03 A3009 RMK A01 T02471032  RH  016%=      5-min Rain = 0
KAM2 092105Z 20010KT 25/M04 A3009 RMK A01 T02471041  RH  015%=      5-min Rain = 0
KAM2 092106Z 20011KT 25/M04 A3009 RMK A01 T02451042  RH  015%=      5-min Rain = 0
KAM2 092107Z 20011KT 24/M04 A3009 RMK A01 T02431040  RH  015%=      5-min Rain = 0
KAM2 092108Z 21011KT 24/M04 A3009 RMK A01 T02421041  RH  015%=      5-min Rain = 0
KAM2 092109Z 20011KT 24/M04 A3009 RMK A01 T02421043  RH  015%=      5-min Rain = 0
KAM2 092110Z 20010KT 24/M04 A3009 RMK A01 T02431044  RH  015%=      5-min Rain = 0
KAM2 092111Z 21009KT 24/M04 A3009 RMK A01 T02441041  RH  015%=      5-min Rain = 0
KAM2 092112Z 20012KT 25/M04 A3009 RMK A01 T02451041  RH  015%=      5-min Rain = 0
KAM2 092113Z 20011KT 24/M04 A3009 RMK A01 T02441044  RH  014%=      5-min Rain = 0
KAM2 092114Z 20011KT 24/M04 A3009 RMK A01 T02441043  RH  015%=      5-min Rain = 0
KAM2 092115Z 22011KT 24/M04 A3009 RMK A01 T02431044  RH  015%=      5-min Rain = 0
KAM2 092116Z 22008KT 24/M04 A3009 RMK A01 T02421043  RH  015%=      5-min Rain = 0
KAM2 092117Z 21009KT 24/M04 A3009 RMK A01 T02421043  RH  015%=      5-min Rain = 0
KAM2 092118Z 21008KT 24/M04 A3009 RMK A01 T02421041  RH  015%=      5-min Rain = 0
KAM2 092119Z 21009KT 24/M04 A3009 RMK A01 T02421042  RH  015%=      5-min Rain = 0
KAM2 092120Z 21010KT 24/M04 A3009 RMK A01 T02421042  RH  015%=      5-min Rain = 0
KAM2 092121Z 20010KT 24/M04 A3009 RMK A01 T02411041  RH  015%=      5-min Rain = 0
KAM2 092122Z 22009KT 24/M04 A3009 RMK A01 T02421042  RH  015%=      5-min Rain = 0
KAM2 092123Z 22009KT 24/M05 A3009 RMK A01 T02431045  RH  014%=      5-min Rain = 0
KAM2 092124Z 22009KT 24/M04 A3009 RMK A01 T02431042  RH  015%=      5-min Rain = 0
KAM2 092125Z 21010KT 24/M04 A3009 RMK A01 T02431041  RH  015%=      5-min Rain = 0
KAM2 092126Z 22009KT 24/M04 A3009 RMK A01 T02431040  RH  015%=      5-min Rain = 0
KAM2 092127Z 20009KT 24/M04 A3009 RMK A01 T02431039  RH  015%=      5-min Rain = 0
KAM2 092128Z 19010KT 24/M04 A3009 RMK A01 T02431039  RH  015%=      5-min Rain = 0
KAM2 092129Z 19008KT 24/M04 A3009 RMK A01 T02431039  RH  015%=      5-min Rain = 0
KAM2 092130Z 18010KT 24/M04 A3009 RMK A01 T02441036  RH  015%=      5-min Rain = 0
KAM2 092131Z 18007KT 25/M04 A3008 RMK A01 T02451035  RH  015%=      5-min Rain = 0
KAM2 092132Z 18007KT 25/M03 A3008 RMK A01 T02451032  RH  016%=      5-min Rain = 0
KAM2 092133Z 18009KT 25/M03 A3008 RMK A01 T02461032  RH  016%=      5-min Rain = 0
KAM2 092134Z 19013KT 25/M03 A3008 RMK A01 T02461034  RH  015%=      5-min Rain = 0
KAM2 092135Z 20012KT 25/M04 A3008 RMK A01 T02451037  RH  015%=      5-min Rain = 0
KAM2 092136Z 21008KT 24/M04 A3008 RMK A01 T02431041  RH  015%=      5-min Rain = 0
KAM2 092137Z 20007KT 24/M04 A3008 RMK A01 T02431040  RH  015%=      5-min Rain = 0
KAM2 092138Z 19007KT 24/M04 A3008 RMK A01 T02441040  RH  015%=      5-min Rain = 0
KAM2 092139Z 19007KT 25/M04 A3008 RMK A01 T02451036  RH  015%=      5-min Rain = 0
KAM2 092140Z 19008KT 25/M04 A3008 RMK A01 T02451035  RH  015%=      5-min Rain = 0
KAM2 092141Z 20010KT 25/M03 A3008 RMK A01 T02461034  RH  015%=      5-min Rain = 0
KAM2 092142Z 18009KT 25/M03 A3008 RMK A01 T02451032  RH  016%=      5-min Rain = 0
KAM2 092143Z 20012KT 25/M03 A3008 RMK A01 T02451031  RH  016%=      5-min Rain = 0
KAM2 092144Z 20012KT 25/M03 A3008 RMK A01 T02451033  RH  016%=      5-min Rain = 0
KAM2 092145Z 20012KT 24/M03 A3008 RMK A01 T02441034  RH  016%=      5-min Rain = 0
KAM2 092146Z 21008KT 24/M03 A3008 RMK A01 T02421032  RH  016%=      5-min Rain = 0
KAM2 092147Z 21008KT 24/M03 A3008 RMK A01 T02421031  RH  016%=      5-min Rain = 0
KAM2 092148Z 21010KT 24/M03 A3008 RMK A01 T02431031  RH  016%=      5-min Rain = 0
KAM2 092149Z 21011KT 24/M03 A3008 RMK A01 T02431032  RH  016%=      5-min Rain = 0
KAM2 092150Z 21010KT 24/M03 A3008 RMK A01 T02421032  RH  016%=      5-min Rain = 0
KAM2 092151Z 21008KT 24/M03 A3008 RMK A01 T02421033  RH  016%=      5-min Rain = 0
KAM2 092152Z 21009KT 24/M03 A3008 RMK A01 T02421033  RH  016%=      5-min Rain = 0
KAM2 092153Z 22007KT 24/M03 A3008 RMK A01 T02421033  RH  016%=      5-min Rain = 0
KAM2 092154Z 20008KT 24/M03 A3008 RMK A01 T02411030  RH  016%=      5-min Rain = 0
KAM2 092155Z 19012KT 24/M03 A3008 RMK A01 T02431031  RH  016%=      5-min Rain = 0
KAM2 092156Z 20012KT 24/M03 A3008 RMK A01 T02421033  RH  016%=      5-min Rain = 0
KAM2 092157Z 20010KT 24/M03 A3008 RMK A01 T02421032  RH  016%=      5-min Rain = 0
KAM2 092158Z 20011KT 24/M03 A3008 RMK A01 T02421032  RH  016%=      5-min Rain = 0
KAM2 092159Z 20009KT 24/M03 A3008 RMK A01 T02421034  RH  016%=      5-min Rain = 0
KAM2 092200Z 20008KT 24/M03 A3008 RMK A01 T02421034  RH  016%=      5-min Rain = 0
KAM2 092201Z 19009KT 24/M04 A3008 RMK A01 T02421035  RH  016%=      5-min Rain = 0
KAM2 092202Z 19011KT 24/M03 A3007 RMK A01 T02421034  RH  016%=      5-min Rain = 0
KAM2 092203Z 18010KT 24/M04 A3007 RMK A01 T02421035  RH  016%=      5-min Rain = 0
KAM2 092204Z 18010KT 24/M03 A3007 RMK A01 T02411033  RH  016%=      5-min Rain = 0
KAM2 092205Z 19010KT 24/M03 A3007 RMK A01 T02421031  RH  016%=      5-min Rain = 0
KAM2 092206Z 20010KT 24/M03 A3007 RMK A01 T02421032  RH  016%=      5-min Rain = 0
KAM2 092207Z 20009KT 24/M03 A3007 RMK A01 T02421032  RH  016%=      5-min Rain = 0
KAM2 092208Z 20010KT 24/M03 A3007 RMK A01 T02421031  RH  016%=      5-min Rain = 0
KAM2 092209Z 20012KT 24/M03 A3007 RMK A01 T02431033  RH  016%=      5-min Rain = 0
KAM2 092210Z 19012KT 24/M03 A3007 RMK A01 T02421033  RH  016%=      5-min Rain = 0
KAM2 092211Z 19011KT 24/M03 A3007 RMK A01 T02421034  RH  016%=      5-min Rain = 0
KAM2 092212Z 20010KT 24/M04 A3007 RMK A01 T02411037  RH  016%=      5-min Rain = 0
KAM2 092213Z 19009KT 24/M04 A3007 RMK A01 T02401037  RH  016%=      5-min Rain = 0
KAM2 092214Z 19010KT 24/M04 A3007 RMK A01 T02411035  RH  016%=      5-min Rain = 0
KAM2 092215Z 19009KT 24/M04 A3007 RMK A01 T02411037  RH  016%=      5-min Rain = 0
KAM2 092216Z 19010KT 24/M04 A3007 RMK A01 T02411036  RH  016%=      5-min Rain = 0
KAM2 092217Z 20009KT 24/M04 A3007 RMK A01 T02411035  RH  016%=      5-min Rain = 0
KAM2 092218Z 21007KT 24/M03 A3007 RMK A01 T02411034  RH  016%=      5-min Rain = 0
KAM2 092219Z 20009KT 24/M03 A3007 RMK A01 T02421033  RH  016%=      5-min Rain = 0
KAM2 092220Z 21008KT 24/M03 A3007 RMK A01 T02421034  RH  016%=      5-min Rain = 0
KAM2 092221Z 21010KT 24/M03 A3007 RMK A01 T02411034  RH  016%=      5-min Rain = 0
KAM2 092222Z 22008KT 24/M03 A3007 RMK A01 T02401034  RH  016%=      5-min Rain = 0
KAM2 092223Z 21009KT 24/M03 A3007 RMK A01 T02401033  RH  016%=      5-min Rain = 0
KAM2 092224Z 21011KT 24/M03 A3007 RMK A01 T02391031  RH  016%=      5-min Rain = 0
KAM2 092225Z 21010KT 24/M03 A3007 RMK A01 T02381029  RH  017%=      5-min Rain = 0
KAM2 092226Z 20010KT 24/M03 A3007 RMK A01 T02381028  RH  017%=      5-min Rain = 0
KAM2 092227Z 20009KT 24/M03 A3007 RMK A01 T02381029  RH  017%=      5-min Rain = 0
KAM2 092228Z 20008KT 24/M03 A3007 RMK A01 T02381029  RH  017%=      5-min Rain = 0
KAM2 092229Z 21008KT 24/M03 A3007 RMK A01 T02381027  RH  017%=      5-min Rain = 0
KAM2 092230Z 22008KT 24/M03 A3007 RMK A01 T02381028  RH  017%=      5-min Rain = 0
KAM2 092231Z 21007KT 24/M03 A3007 RMK A01 T02381028  RH  017%=      5-min Rain = 0
KAM2 092232Z 21009KT 24/M03 A3007 RMK A01 T02381026  RH  017%=      5-min Rain = 0
KAM2 092233Z 21009KT 24/M03 A3007 RMK A01 T02371029  RH  017%=      5-min Rain = 0
KAM2 092234Z 21008KT 24/M03 A3007 RMK A01 T02371029  RH  017%=      5-min Rain = 0
KAM2 092235Z 21008KT 24/M03 A3007 RMK A01 T02371027  RH  017%=      5-min Rain = 0
KAM2 092236Z 21008KT 24/M03 A3007 RMK A01 T02361029  RH  017%=      5-min Rain = 0
KAM2 092237Z 21007KT 24/M03 A3007 RMK A01 T02361033  RH  016%=      5-min Rain = 0
KAM2 092238Z 21010KT 24/M03 A3007 RMK A01 T02361034  RH  016%=      5-min Rain = 0
KAM2 092239Z 21009KT 24/M04 A3007 RMK A01 T02351037  RH  016%=      5-min Rain = 0
KAM2 092240Z 21010KT 23/M04 A3007 RMK A01 T02341037  RH  016%=      5-min Rain = 0
KAM2 092241Z 21010KT 23/M04 A3007 RMK A01 T02341038  RH  016%=      5-min Rain = 0
KAM2 092242Z 21011KT 23/M04 A3007 RMK A01 T02341039  RH  016%=      5-min Rain = 0
KAM2 092243Z 21009KT 23/M04 A3007 RMK A01 T02331036  RH  016%=      5-min Rain = 0
KAM2 092244Z 21009KT 23/M03 A3007 RMK A01 T02321033  RH  017%=      5-min Rain = 0
KAM2 092245Z 20008KT 23/M03 A3007 RMK A01 T02321031  RH  017%=      5-min Rain = 0
KAM2 092246Z 21009KT 23/M03 A3007 RMK A01 T02311028  RH  018%=      5-min Rain = 0
KAM2 092247Z 21007KT 23/M03 A3007 RMK A01 T02311028  RH  018%=      5-min Rain = 0
KAM2 092248Z 21007KT 23/M03 A3007 RMK A01 T02311026  RH  018%=      5-min Rain = 0
KAM2 092249Z 20009KT 23/M03 A3007 RMK A01 T02301026  RH  018%=      5-min Rain = 0
KAM2 092250Z 20009KT 23/M03 A3007 RMK A01 T02301026  RH  018%=      5-min Rain = 0
KAM2 092251Z 20011KT 23/M03 A3007 RMK A01 T02301027  RH  018%=      5-min Rain = 0
KAM2 092252Z 20009KT 23/M03 A3007 RMK A01 T02291027  RH  018%=      5-min Rain = 0
KAM2 092253Z 20009KT 23/M03 A3007 RMK A01 T02291027  RH  018%=      5-min Rain = 0
KAM2 092254Z 20008KT 23/M03 A3007 RMK A01 T02291026  RH  018%=      5-min Rain = 0
KAM2 092255Z 21007KT 23/M03 A3007 RMK A01 T02271025  RH  018%=      5-min Rain = 0
KAM2 092256Z 21007KT 23/M02 A3007 RMK A01 T02271024  RH  019%=      5-min Rain = 0
KAM2 092257Z 21007KT 23/M02 A3007 RMK A01 T02271023  RH  019%=      5-min Rain = 0
KAM2 092258Z 21008KT 23/M02 A3007 RMK A01 T02261023  RH  019%=      5-min Rain = 0
KAM2 092259Z 21008KT 23/M02 A3007 RMK A01 T02251022  RH  019%=      5-min Rain = 0
KAM2 092300Z 21007KT 23/M02 A3007 RMK A01 T02251020  RH  019%=      5-min Rain = 0
KAM2 092301Z 21006KT 23/M02 A3007 RMK A01 T02251019  RH  020%=      5-min Rain = 0
KAM2 092302Z 21007KT 22/M02 A3007 RMK A01 T02231018  RH  020%=      5-min Rain = 0
KAM2 092303Z 20007KT 22/M02 A3007 RMK A01 T02231017  RH  020%=      5-min Rain = 0
KAM2 092304Z 20007KT 22/M02 A3007 RMK A01 T02221016  RH  020%=      5-min Rain = 0
KAM2 092305Z 20007KT 22/M02 A3007 RMK A01 T02221016  RH  020%=      5-min Rain = 0
KAM2 092306Z 20006KT 22/M02 A3007 RMK A01 T02211015  RH  021%=      5-min Rain = 0
KAM2 092307Z 20007KT 22/M02 A3007 RMK A01 T02201015  RH  021%=      5-min Rain = 0
KAM2 092308Z 20007KT 22/M02 A3007 RMK A01 T02191015  RH  021%=      5-min Rain = 0
KAM2 092309Z 20006KT 22/M01 A3007 RMK A01 T02181014  RH  021%=      5-min Rain = 0
KAM2 092310Z 20007KT 22/M01 A3007 RMK A01 T02171013  RH  021%=      5-min Rain = 0
KAM2 092311Z 20006KT 22/M01 A3007 RMK A01 T02161013  RH  022%=      5-min Rain = 0
KAM2 092312Z 19006KT 22/M01 A3007 RMK A01 T02151012  RH  022%=      5-min Rain = 0
KAM2 092313Z 19006KT 21/M01 A3007 RMK A01 T02141011  RH  022%=      5-min Rain = 0
KAM2 092314Z 19006KT 21/M01 A3007 RMK A01 T02131011  RH  022%=      5-min Rain = 0
KAM2 092315Z 19006KT 21/M01 A3007 RMK A01 T02131011  RH  022%=      5-min Rain = 0
KAM2 092316Z 19006KT 21/M01 A3007 RMK A01 T02121011  RH  022%=      5-min Rain = 0
KAM2 092317Z 20006KT 21/M01 A3007 RMK A01 T02111010  RH  023%=      5-min Rain = 0
KAM2 092318Z 19006KT 21/M01 A3007 RMK A01 T02101010  RH  023%=      5-min Rain = 0
KAM2 092319Z 20006KT 21/M01 A3007 RMK A01 T02081010  RH  023%=      5-min Rain = 0
KAM2 092320Z 19006KT 21/M01 A3007 RMK A01 T02071009  RH  024%=      5-min Rain = 0
KAM2 092321Z 20006KT 20/M01 A3007 RMK A01 T02041009  RH  024%=      5-min Rain = 0
KAM2 092322Z 20006KT 20/M01 A3007 RMK A01 T02021008  RH  024%=      5-min Rain = 0
KAM2 092323Z 20006KT 20/M01 A3007 RMK A01 T02001007  RH  025%=      5-min Rain = 0
KAM2 092324Z 20006KT 20/M01 A3006 RMK A01 T01991007  RH  025%=      5-min Rain = 0
KAM2 092325Z 20006KT 20/M01 A3006 RMK A01 T01971007  RH  025%=      5-min Rain = 0
KAM2 092326Z 19006KT 20/M01 A3006 RMK A01 T01961007  RH  026%=      5-min Rain = 0
KAM2 092327Z 20006KT 20/M01 A3006 RMK A01 T01951006  RH  026%=      5-min Rain = 0
KAM2 092328Z 20006KT 19/M01 A3006 RMK A01 T01931006  RH  026%=      5-min Rain = 0
KAM2 092329Z 20006KT 19/M01 A3006 RMK A01 T01921006  RH  026%=      5-min Rain = 0
KAM2 092330Z 19006KT 19/M01 A3006 RMK A01 T01901006  RH  027%=      5-min Rain = 0
KAM2 092331Z 20006KT 19/M01 A3006 RMK A01 T01891006  RH  027%=      5-min Rain = 0
KAM2 092332Z 20006KT 19/M01 A3006 RMK A01 T01871006  RH  027%=      5-min Rain = 0
KAM2 092333Z 20006KT 19/M01 A3006 RMK A01 T01851006  RH  028%=      5-min Rain = 0
KAM2 092334Z 20006KT 18/M01 A3006 RMK A01 T01811006  RH  028%=      5-min Rain = 0
KAM2 092335Z 20006KT 18/M01 A3006 RMK A01 T01791006  RH  029%=      5-min Rain = 0
KAM2 092336Z 20005KT 18/M01 A3006 RMK A01 T01761006  RH  029%=      5-min Rain = 0
KAM2 092337Z 20005KT 17/M01 A3006 RMK A01 T01741007  RH  029%=      5-min Rain = 0
KAM2 092338Z 20005KT 17/M01 A3006 RMK A01 T01721007  RH  030%=      5-min Rain = 0
KAM2 092339Z 20004KT 17/M01 A3006 RMK A01 T01701006  RH  030%=      5-min Rain = 0
KAM2 092340Z 19004KT 17/M01 A3006 RMK A01 T01681006  RH  030%=      5-min Rain = 0
KAM2 092341Z 19004KT 17/M01 A3006 RMK A01 T01671005  RH  031%=      5-min Rain = 0
KAM2 092342Z 19004KT 17/M01 A3006 RMK A01 T01661005  RH  031%=      5-min Rain = 0
KAM2 092343Z 19005KT 17/M01 A3006 RMK A01 T01661006  RH  031%=      5-min Rain = 0
KAM2 092344Z 19005KT 17/M01 A3006 RMK A01 T01651005  RH  031%=      5-min Rain = 0
KAM2 092345Z 18005KT 16/M01 A3006 RMK A01 T01641006  RH  032%=      5-min Rain = 0
KAM2 092346Z 18005KT 16/M01 A3006 RMK A01 T01621006  RH  032%=      5-min Rain = 0
KAM2 092347Z 18005KT 16/M01 A3006 RMK A01 T01591006  RH  032%=      5-min Rain = 0
KAM2 092348Z 18004KT 16/M01 A3006 RMK A01 T01571006  RH  033%=      5-min Rain = 0
KAM2 092349Z 18004KT 16/M01 A3006 RMK A01 T01551007  RH  033%=      5-min Rain = 0
KAM2 092350Z 17003KT 15/M01 A3006 RMK A01 T01531006  RH  034%=      5-min Rain = 0
KAM2 092351Z 16003KT 15/M01 A3006 RMK A01 T01511006  RH  034%=      5-min Rain = 0
KAM2 092352Z 16003KT 15/M01 A3006 RMK A01 T01501005  RH  035%=      5-min Rain = 0
KAM2 092353Z 17003KT 15/M01 A3006 RMK A01 T01491005  RH  035%=      5-min Rain = 0
KAM2 092354Z 17003KT 15/M01 A3006 RMK A01 T01471006  RH  035%=      5-min Rain = 0
KAM2 092355Z 17003KT 15/M01 A3006 RMK A01 T01461006  RH  035%=      5-min Rain = 0
KAM2 092356Z 17004KT 14/M01 A3006 RMK A01 T01441006  RH  036%=      5-min Rain = 0
KAM2 092357Z 17003KT 14/M01 A3006 RMK A01 T01441006  RH  036%=      5-min Rain = 0
KAM2 092358Z 17004KT 14/M01 A3006 RMK A01 T01431006  RH  036%=      5-min Rain = 0
KAM2 092359Z 17003KT 14/M01 A3006 RMK A01 T01421006  RH  036%=      5-min Rain = 0
KAM2 100000Z 17003KT 14/M01 A3006 RMK A01 T01411006  RH  036%=      5-min Rain = 0
KAM2 100001Z 18003KT 14/M01 A3006 RMK A01 T01401006  RH  037%=      5-min Rain = 0
KAM2 100002Z 18004KT 14/M01 A3006 RMK A01 T01391006  RH  037%=      5-min Rain = 0
KAM2 100003Z 18004KT 14/M01 A3006 RMK A01 T01371006  RH  037%=      5-min Rain = 0
KAM2 100004Z 18004KT 14/M01 A3006 RMK A01 T01351005  RH  038%=      5-min Rain = 0
KAM2 100005Z 18004KT 13/M01 A3006 RMK A01 T01331006  RH  038%=      5-min Rain = 0
KAM2 100006Z 18004KT 13/M01 A3007 RMK A01 T01311006  RH  039%=      5-min Rain = 0
KAM2 100007Z 18004KT 13/M01 A3007 RMK A01 T01301005  RH  039%=      5-min Rain = 0
KAM2 100008Z 17004KT 13/M01 A3007 RMK A01 T01281005  RH  040%=      5-min Rain = 0
KAM2 100009Z 17004KT 13/M01 A3007 RMK A01 T01271005  RH  040%=      5-min Rain = 0
KAM2 100010Z 17004KT 13/M00 A3006 RMK A01 T01271003  RH  041%=      5-min Rain = 0
KAM2 100011Z 18004KT 13/M00 A3006 RMK A01 T01261002  RH  041%=      5-min Rain = 0
KAM2 100012Z 18004KT 13/M00 A3006 RMK A01 T01251001  RH  042%=      5-min Rain = 0
KAM2 100013Z 18004KT 13/00 A3006 RMK A01 T012500-0  RH  042%=      5-min Rain = 0
KAM2 100014Z 18004KT 12/M00 A3006 RMK A01 T01241001  RH  042%=      5-min Rain = 0
KAM2 100015Z 18004KT 12/M00 A3006 RMK A01 T01231003  RH  042%=      5-min Rain = 0
KAM2 100016Z 18005KT 12/M00 A3006 RMK A01 T01221004  RH  042%=      5-min Rain = 0
KAM2 100017Z 18005KT 12/M01 A3006 RMK A01 T01201006  RH  042%=      5-min Rain = 0
KAM2 100018Z 18005KT 12/M01 A3006 RMK A01 T01191006  RH  042%=      5-min Rain = 0
KAM2 100019Z 19006KT 12/M01 A3007 RMK A01 T01181006  RH  042%=      5-min Rain = 0
KAM2 100020Z 18005KT 12/M01 A3007 RMK A01 T01161005  RH  043%=      5-min Rain = 0
KAM2 100021Z 19004KT 12/M00 A3007 RMK A01 T01151004  RH  044%=      5-min Rain = 0
KAM2 100022Z 18004KT 11/M00 A3007 RMK A01 T01131003  RH  045%=      5-min Rain = 0
KAM2 100023Z 18004KT 11/M00 A3007 RMK A01 T01121004  RH  045%=      5-min Rain = 0
KAM2 100024Z 18004KT 11/M01 A3007 RMK A01 T01111005  RH  045%=      5-min Rain = 0
KAM2 100025Z 18004KT 11/M01 A3007 RMK A01 T01101006  RH  045%=      5-min Rain = 0
KAM2 100026Z 18004KT 11/M01 A3007 RMK A01 T01101006  RH  045%=      5-min Rain = 0
KAM2 100027Z 17004KT 11/M01 A3007 RMK A01 T01101006  RH  045%=      5-min Rain = 0
KAM2 100028Z 18004KT 11/M01 A3007 RMK A01 T01091007  RH  045%=      5-min Rain = 0
KAM2 100029Z 18004KT 11/M01 A3007 RMK A01 T01091007  RH  045%=      5-min Rain = 0
KAM2 100030Z 18004KT 11/M01 A3007 RMK A01 T01081007  RH  045%=      5-min Rain = 0
KAM2 100031Z 18005KT 11/M01 A3007 RMK A01 T01071007  RH  045%=      5-min Rain = 0
KAM2 100032Z 18005KT 11/M01 A3007 RMK A01 T01061007  RH  045%=      5-min Rain = 0
KAM2 100033Z 18005KT 11/M01 A3007 RMK A01 T01051007  RH  046%=      5-min Rain = 0
KAM2 100034Z 18004KT 10/M01 A3007 RMK A01 T01041007  RH  046%=      5-min Rain = 0
KAM2 100035Z 18005KT 10/M01 A3007 RMK A01 T01031007  RH  046%=      5-min Rain = 0
KAM2 100036Z 18004KT 10/M01 A3007 RMK A01 T01021007  RH  047%=      5-min Rain = 0
KAM2 100037Z 18005KT 10/M01 A3007 RMK A01 T01001008  RH  047%=      5-min Rain = 0
KAM2 100038Z 18005KT 10/M01 A3007 RMK A01 T00991008  RH  047%=      5-min Rain = 0
KAM2 100039Z 18004KT 10/M01 A3007 RMK A01 T00981008  RH  048%=      5-min Rain = 0
KAM2 100040Z 18004KT 10/M01 A3007 RMK A01 T00971008  RH  048%=      5-min Rain = 0
KAM2 100041Z 18005KT 10/M01 A3007 RMK A01 T00961009  RH  048%=      5-min Rain = 0
KAM2 100042Z 18004KT 10/M01 A3007 RMK A01 T00951009  RH  048%=      5-min Rain = 0
KAM2 100043Z 18004KT 10/M01 A3007 RMK A01 T00951009  RH  048%=      5-min Rain = 0
KAM2 100044Z 19004KT 09/M01 A3007 RMK A01 T00941009  RH  049%=      5-min Rain = 0
KAM2 100045Z 18005KT 09/M01 A3007 RMK A01 T00931009  RH  049%=      5-min Rain = 0
KAM2 100046Z 19005KT 09/M01 A3007 RMK A01 T00931008  RH  049%=      5-min Rain = 0
KAM2 100047Z 18006KT 09/M01 A3007 RMK A01 T00921008  RH  049%=      5-min Rain = 0
KAM2 100048Z 19006KT 09/M01 A3007 RMK A01 T00911008  RH  050%=      5-min Rain = 0
KAM2 100049Z 19006KT 09/M01 A3007 RMK A01 T00901008  RH  050%=      5-min Rain = 0
KAM2 100050Z 19006KT 09/M01 A3007 RMK A01 T00901008  RH  050%=      5-min Rain = 0
KAM2 100051Z 19006KT 09/M01 A3007 RMK A01 T00891008  RH  051%=      5-min Rain = 0
KAM2 100052Z 19005KT 09/M01 A3007 RMK A01 T00901008  RH  050%=      5-min Rain = 0
KAM2 100053Z 19005KT 09/M01 A3007 RMK A01 T00891007  RH  051%=      5-min Rain = 0
KAM2 100054Z 19005KT 09/M01 A3007 RMK A01 T00881007  RH  051%=      5-min Rain = 0
KAM2 100055Z 18005KT 09/M01 A3007 RMK A01 T00871007  RH  052%=      5-min Rain = 0
KAM2 100056Z 18005KT 09/M01 A3007 RMK A01 T00861007  RH  052%=      5-min Rain = 0
KAM2 100057Z 18006KT 09/M01 A3007 RMK A01 T00851007  RH  052%=      5-min Rain = 0
KAM2 100058Z 18006KT 09/M01 A3007 RMK A01 T00851007  RH  053%=      5-min Rain = 0
KAM2 100059Z 18006KT 08/M01 A3007 RMK A01 T00841006  RH  053%=      5-min Rain = 0
KAM2 100100Z 18006KT 09/M01 A3007 RMK A01 T00851005  RH  053%=      5-min Rain = 0
KAM2 100101Z 18006KT 09/M01 A3007 RMK A01 T00851005  RH  053%=      5-min Rain = 0
KAM2 100102Z 18007KT 09/M00 A3007 RMK A01 T00861004  RH  053%=      5-min Rain = 0
KAM2 100103Z 18007KT 09/M00 A3007 RMK A01 T00861004  RH  053%=      5-min Rain = 0
KAM2 100104Z 18007KT 09/M00 A3007 RMK A01 T00851004  RH  054%=      5-min Rain = 0
KAM2 100105Z 18007KT 08/M01 A3007 RMK A01 T00841005  RH  054%=      5-min Rain = 0
KAM2 100106Z 18007KT 08/M00 A3007 RMK A01 T00831004  RH  054%=      5-min Rain = 0
KAM2 100107Z 19007KT 08/M01 A3007 RMK A01 T00821005  RH  054%=      5-min Rain = 0
KAM2 100108Z 19007KT 08/M01 A3007 RMK A01 T00821005  RH  054%=      5-min Rain = 0
KAM2 100109Z 18007KT 08/M01 A3007 RMK A01 T00811005  RH  055%=      5-min Rain = 0
KAM2 100110Z 18007KT 08/M01 A3007 RMK A01 T00811005  RH  055%=      5-min Rain = 0
KAM2 100111Z 18007KT 08/M01 A3007 RMK A01 T00811005  RH  055%=      5-min Rain = 0
KAM2 100112Z 18007KT 08/M00 A3007 RMK A01 T00801004  RH  055%=      5-min Rain = 0
KAM2 100113Z 18007KT 08/M00 A3007 RMK A01 T00801004  RH  055%=      5-min Rain = 0
KAM2 100114Z 18007KT 08/M00 A3007 RMK A01 T00791004  RH  055%=      5-min Rain = 0
KAM2 100115Z 18007KT 08/M00 A3007 RMK A01 T00791004  RH  056%=      5-min Rain = 0
KAM2 100116Z 18007KT 08/M00 A3007 RMK A01 T00781004  RH  056%=      5-min Rain = 0
KAM2 100117Z 18007KT 08/M00 A3007 RMK A01 T00781004  RH  056%=      5-min Rain = 0
KAM2 100118Z 18007KT 08/M00 A3007 RMK A01 T00781004  RH  056%=      5-min Rain = 0
KAM2 100119Z 18007KT 08/M00 A3007 RMK A01 T00781003  RH  056%=      5-min Rain = 0
KAM2 100120Z 19007KT 08/M00 A3007 RMK A01 T00771003  RH  057%=      5-min Rain = 0
KAM2 100121Z 19007KT 08/M00 A3007 RMK A01 T00771004  RH  057%=      5-min Rain = 0
KAM2 100122Z 19007KT 08/M00 A3007 RMK A01 T00761003  RH  057%=      5-min Rain = 0
KAM2 100123Z 19007KT 08/M00 A3007 RMK A01 T00761003  RH  057%=      5-min Rain = 0
KAM2 100124Z 19007KT 08/M00 A3007 RMK A01 T00761003  RH  057%=      5-min Rain = 0
KAM2 100125Z 19007KT 08/M00 A3007 RMK A01 T00751004  RH  057%=      5-min Rain = 0
KAM2 100126Z 19007KT 08/M00 A3007 RMK A01 T00751003  RH  058%=      5-min Rain = 0
KAM2 100127Z 19007KT 07/M00 A3007 RMK A01 T00741004  RH  058%=      5-min Rain = 0
KAM2 100128Z 19007KT 07/M00 A3007 RMK A01 T00731004  RH  058%=      5-min Rain = 0
KAM2 100129Z 18007KT 07/M00 A3007 RMK A01 T00721004  RH  058%=      5-min Rain = 0
KAM2 100130Z 18007KT 07/M00 A3007 RMK A01 T00721004  RH  059%=      5-min Rain = 0
KAM2 100131Z 18007KT 07/M00 A3007 RMK A01 T00711004  RH  059%=      5-min Rain = 0
KAM2 100132Z 18007KT 07/M01 A3007 RMK A01 T00711005  RH  059%=      5-min Rain = 0
KAM2 100133Z 18007KT 07/M01 A3007 RMK A01 T00701005  RH  059%=      5-min Rain = 0
KAM2 100134Z 18008KT 07/M01 A3007 RMK A01 T00701005  RH  059%=      5-min Rain = 0
KAM2 100135Z 18008KT 07/M00 A3007 RMK A01 T00701004  RH  059%=      5-min Rain = 0
KAM2 100136Z 18008KT 07/M00 A3007 RMK A01 T00691004  RH  060%=      5-min Rain = 0
KAM2 100137Z 18008KT 07/M00 A3007 RMK A01 T00701003  RH  060%=      5-min Rain = 0
KAM2 100138Z 18008KT 07/M00 A3007 RMK A01 T00701003  RH  060%=      5-min Rain = 0
KAM2 100139Z 18008KT 07/M00 A3007 RMK A01 T00701003  RH  060%=      5-min Rain = 0
KAM2 100140Z 18008KT 07/M00 A3007 RMK A01 T00701003  RH  060%=      5-min Rain = 0
KAM2 100141Z 18008KT 07/M00 A3007 RMK A01 T00701003  RH  060%=      5-min Rain = 0
KAM2 100142Z 18008KT 07/M00 A3007 RMK A01 T00701003  RH  060%=      5-min Rain = 0
KAM2 100143Z 18008KT 07/M00 A3007 RMK A01 T00701003  RH  060%=      5-min Rain = 0
KAM2 100144Z 18008KT 07/M00 A3007 RMK A01 T00701003  RH  060%=      5-min Rain = 0
KAM2 100145Z 18008KT 07/M00 A3007 RMK A01 T00701004  RH  059%=      5-min Rain = 0
KAM2 100146Z 18008KT 07/M00 A3007 RMK A01 T00711003  RH  059%=      5-min Rain = 0
KAM2 100147Z 18008KT 07/M00 A3007 RMK A01 T00711004  RH  059%=      5-min Rain = 0
KAM2 100148Z 18008KT 07/M00 A3007 RMK A01 T00721004  RH  059%=      5-min Rain = 0
KAM2 100149Z 18008KT 07/M00 A3007 RMK A01 T00721004  RH  059%=      5-min Rain = 0
KAM2 100150Z 18008KT 07/M00 A3007 RMK A01 T00721004  RH  059%=      5-min Rain = 0
KAM2 100151Z 18008KT 07/M00 A3007 RMK A01 T00721004  RH  058%=      5-min Rain = 0
KAM2 100152Z 18008KT 07/M00 A3007 RMK A01 T00731004  RH  058%=      5-min Rain = 0
KAM2 100153Z 18008KT 07/M00 A3007 RMK A01 T00731004  RH  058%=      5-min Rain = 0
KAM2 100154Z 18008KT 07/M00 A3007 RMK A01 T00741004  RH  058%=      5-min Rain = 0
KAM2 100155Z 18007KT 07/M00 A3007 RMK A01 T00741004  RH  057%=      5-min Rain = 0
KAM2 100156Z 18007KT 08/M00 A3007 RMK A01 T00751004  RH  057%=      5-min Rain = 0
KAM2 100157Z 18007KT 08/M00 A3007 RMK A01 T00751004  RH  057%=      5-min Rain = 0
KAM2 100158Z 18007KT 08/M00 A3007 RMK A01 T00751004  RH  057%=      5-min Rain = 0
KAM2 100159Z 18007KT 08/M00 A3007 RMK A01 T00761004  RH  057%=      5-min Rain = 0
KAM2 100200Z 18007KT 08/M00 A3007 RMK A01 T00761004  RH  057%=      5-min Rain = 0
KAM2 100201Z 18007KT 08/M00 A3007 RMK A01 T00771004  RH  057%=      5-min Rain = 0
KAM2 100202Z 18007KT 08/M00 A3007 RMK A01 T00761004  RH  057%=      5-min Rain = 0
KAM2 100203Z 18007KT 08/M00 A3007 RMK A01 T00761004  RH  057%=      5-min Rain = 0
KAM2 100204Z 18007KT 08/M00 A3007 RMK A01 T00761004  RH  057%=      5-min Rain = 0
KAM2 100205Z 18008KT 08/M00 A3007 RMK A01 T00761004  RH  057%=      5-min Rain = 0
KAM2 100206Z 18008KT 08/M00 A3007 RMK A01 T00761004  RH  057%=      5-min Rain = 0
KAM2 100207Z 18008KT 08/M00 A3007 RMK A01 T00771004  RH  057%=      5-min Rain = 0
KAM2 100208Z 18008KT 08/M00 A3007 RMK A01 T00771004  RH  057%=      5-min Rain = 0
KAM2 100209Z 18008KT 08/M00 A3007 RMK A01 T00781003  RH  056%=      5-min Rain = 0
KAM2 100210Z 18008KT 08/M00 A3007 RMK A01 T00791003  RH  056%=      5-min Rain = 0
KAM2 100211Z 18007KT 08/M00 A3007 RMK A01 T00791003  RH  056%=      5-min Rain = 0
KAM2 100212Z 18007KT 08/M00 A3007 RMK A01 T00791003  RH  056%=      5-min Rain = 0
KAM2 100213Z 18007KT 08/M00 A3007 RMK A01 T00791003  RH  056%=      5-min Rain = 0
KAM2 100214Z 18007KT 08/M00 A3007 RMK A01 T00801003  RH  056%=      5-min Rain = 0
KAM2 100215Z 18007KT 08/M00 A3007 RMK A01 T00801003  RH  056%=      5-min Rain = 0
KAM2 100216Z 18007KT 08/M00 A3007 RMK A01 T00801003  RH  056%=      5-min Rain = 0
KAM2 100217Z 18007KT 08/M00 A3007 RMK A01 T00811003  RH  056%=      5-min Rain = 0
KAM2 100218Z 18007KT 08/M00 A3007 RMK A01 T00811002  RH  056%=      5-min Rain = 0
KAM2 100219Z 18007KT 08/M00 A3007 RMK A01 T00821002  RH  056%=      5-min Rain = 0
KAM2 100220Z 18007KT 08/M00 A3007 RMK A01 T00821002  RH  056%=      5-min Rain = 0
KAM2 100221Z 18007KT 08/M00 A3007 RMK A01 T00821002  RH  056%=      5-min Rain = 0
KAM2 100222Z 18007KT 08/M00 A3007 RMK A01 T00821001  RH  056%=      5-min Rain = 0
KAM2 100223Z 18007KT 08/M00 A3007 RMK A01 T00821001  RH  056%=      5-min Rain = 0
KAM2 100224Z 17007KT 08/M00 A3007 RMK A01 T00821002  RH  056%=      5-min Rain = 0
KAM2 100225Z 17007KT 08/M00 A3007 RMK A01 T00821002  RH  055%=      5-min Rain = 0
KAM2 100226Z 17006KT 08/M00 A3007 RMK A01 T00831002  RH  055%=      5-min Rain = 0
KAM2 100227Z 16006KT 08/M00 A3007 RMK A01 T00841002  RH  055%=      5-min Rain = 0
KAM2 100228Z 16006KT 09/M00 A3007 RMK A01 T00851002  RH  054%=      5-min Rain = 0
KAM2 100229Z 16006KT 09/M00 A3007 RMK A01 T00861001  RH  054%=      5-min Rain = 0
KAM2 100230Z 16005KT 09/M00 A3007 RMK A01 T00881001  RH  054%=      5-min Rain = 0
KAM2 100231Z 16005KT 09/M00 A3007 RMK A01 T00881002  RH  053%=      5-min Rain = 0
KAM2 100232Z 16005KT 09/M00 A3007 RMK A01 T00871002  RH  054%=      5-min Rain = 0
KAM2 100233Z 16005KT 08/M00 A3007 RMK A01 T00841001  RH  055%=      5-min Rain = 0
KAM2 100234Z 16005KT 08/M00 A3007 RMK A01 T00821001  RH  056%=      5-min Rain = 0
KAM2 100235Z 16005KT 08/M00 A3007 RMK A01 T00801001  RH  056%=      5-min Rain = 0
KAM2 100236Z 16005KT 08/M00 A3007 RMK A01 T00781002  RH  057%=      5-min Rain = 0
KAM2 100237Z 16005KT 08/M00 A3007 RMK A01 T00771002  RH  057%=      5-min Rain = 0
KAM2 100238Z 16004KT 08/M00 A3007 RMK A01 T00761002  RH  058%=      5-min Rain = 0
KAM2 100239Z 16004KT 08/M00 A3007 RMK A01 T00761002  RH  058%=      5-min Rain = 0
KAM2 100240Z 16004KT 08/M00 A3007 RMK A01 T00771002  RH  057%=      5-min Rain = 0
KAM2 100241Z 17004KT 08/M00 A3007 RMK A01 T00781002  RH  057%=      5-min Rain = 0
KAM2 100242Z 16004KT 08/M00 A3007 RMK A01 T00781001  RH  057%=      5-min Rain = 0
KAM2 100243Z 17004KT 08/M00 A3007 RMK A01 T00791001  RH  057%=      5-min Rain = 0
KAM2 100244Z 17004KT 08/M00 A3007 RMK A01 T00811001  RH  056%=      5-min Rain = 0
KAM2 100245Z 17003KT 08/M00 A3007 RMK A01 T00821001  RH  056%=      5-min Rain = 0
KAM2 100246Z 16003KT 08/M00 A3007 RMK A01 T00841001  RH  055%=      5-min Rain = 0
KAM2 100247Z 18003KT 09/M00 A3007 RMK A01 T00851001  RH  055%=      5-min Rain = 0
KAM2 100248Z 17003KT 09/M00 A3007 RMK A01 T00851001  RH  055%=      5-min Rain = 0
KAM2 100249Z 18003KT 09/M00 A3007 RMK A01 T00851001  RH  055%=      5-min Rain = 0
KAM2 100250Z 19003KT 09/M00 A3007 RMK A01 T00851001  RH  055%=      5-min Rain = 0
KAM2 100251Z 21003KT 09/M00 A3007 RMK A01 T00861001  RH  054%=      5-min Rain = 0
KAM2 100252Z 19002KT 09/M00 A3007 RMK A01 T00881001  RH  054%=      5-min Rain = 0
KAM2 100253Z 21003KT 09/M00 A3007 RMK A01 T00901001  RH  053%=      5-min Rain = 0
KAM2 100254Z 21005KT 09/M00 A3007 RMK A01 T00931001  RH  052%=      5-min Rain = 0
KAM2 100255Z 21006KT 10/00 A3007 RMK A01 T009800-0  RH  051%=      5-min Rain = 0
KAM2 100256Z 21006KT 10/00 A3007 RMK A01 T010100-0  RH  049%=      5-min Rain = 0
KAM2 100257Z 22006KT 11/00 A3007 RMK A01 T01050000  RH  048%=      5-min Rain = 0
KAM2 100258Z 22006KT 11/00 A3007 RMK A01 T01080001  RH  047%=      5-min Rain = 0
KAM2 100259Z 21007KT 11/00 A3007 RMK A01 T01130002  RH  046%=      5-min Rain = 0
KAM2 100300Z 21006KT 12/00 A3007 RMK A01 T01150001  RH  045%=      5-min Rain = 0
KAM2 100301Z 21006KT 12/00 A3007 RMK A01 T01150001  RH  045%=      5-min Rain = 0
KAM2 100302Z 21006KT 11/00 A3007 RMK A01 T01140000  RH  045%=      5-min Rain = 0
KAM2 100303Z 22006KT 11/00 A3007 RMK A01 T01140000  RH  046%=      5-min Rain = 0
KAM2 100304Z 21007KT 12/00 A3007 RMK A01 T01160001  RH  045%=      5-min Rain = 0
KAM2 100305Z 21006KT 12/00 A3007 RMK A01 T01180001  RH  044%=      5-min Rain = 0
KAM2 100306Z 21007KT 12/00 A3007 RMK A01 T01200001  RH  044%=      5-min Rain = 0
KAM2 100307Z 22006KT 12/00 A3007 RMK A01 T01230002  RH  044%=      5-min Rain = 0
KAM2 100308Z 21006KT 12/00 A3007 RMK A01 T01240002  RH  043%=      5-min Rain = 0
KAM2 100309Z 21006KT 13/00 A3007 RMK A01 T01250002  RH  043%=      5-min Rain = 0
KAM2 100310Z 21006KT 13/00 A3007 RMK A01 T01260002  RH  043%=      5-min Rain = 0
KAM2 100311Z 20005KT 12/00 A3007 RMK A01 T01240002  RH  043%=      5-min Rain = 0
KAM2 100312Z 20005KT 12/00 A3007 RMK A01 T01220001  RH  043%=      5-min Rain = 0
KAM2 100313Z 21005KT 12/00 A3007 RMK A01 T01190001  RH  044%=      5-min Rain = 0
KAM2 100314Z 20005KT 12/00 A3007 RMK A01 T01170000  RH  045%=      5-min Rain = 0
KAM2 100315Z 20005KT 12/00 A3007 RMK A01 T01160000  RH  045%=      5-min Rain = 0
KAM2 100316Z 20005KT 12/00 A3007 RMK A01 T011500-0  RH  045%=      5-min Rain = 0
KAM2 100317Z 20005KT 11/00 A3007 RMK A01 T011300-0  RH  046%=      5-min Rain = 0
KAM2 100318Z 20005KT 11/00 A3007 RMK A01 T011100-0  RH  046%=      5-min Rain = 0
KAM2 100319Z 20005KT 11/M00 A3007 RMK A01 T01091001  RH  047%=      5-min Rain = 0
KAM2 100320Z 20005KT 11/00 A3007 RMK A01 T010700-0  RH  047%=      5-min Rain = 0
KAM2 100321Z 20005KT 11/00 A3007 RMK A01 T01060000  RH  048%=      5-min Rain = 0
KAM2 100322Z 20004KT 11/00 A3007 RMK A01 T01060001  RH  048%=      5-min Rain = 0
KAM2 100323Z 20004KT 10/00 A3007 RMK A01 T01040001  RH  049%=      5-min Rain = 0
KAM2 100324Z 20004KT 10/00 A3007 RMK A01 T01030001  RH  049%=      5-min Rain = 0
KAM2 100325Z 20004KT 10/00 A3007 RMK A01 T01020001  RH  049%=      5-min Rain = 0
KAM2 100326Z 20004KT 10/00 A3007 RMK A01 T01020001  RH  049%=      5-min Rain = 0
KAM2 100327Z 20004KT 10/00 A3007 RMK A01 T01020000  RH  049%=      5-min Rain = 0
KAM2 100328Z 21005KT 10/00 A3008 RMK A01 T01010001  RH  050%=      5-min Rain = 0
KAM2 100329Z 21004KT 10/00 A3008 RMK A01 T01000001  RH  050%=      5-min Rain = 0
KAM2 100330Z 21004KT 10/00 A3008 RMK A01 T00990001  RH  050%=      5-min Rain = 0
KAM2 100331Z 20004KT 10/00 A3008 RMK A01 T00980001  RH  051%=      5-min Rain = 0
KAM2 100332Z 21004KT 10/00 A3008 RMK A01 T00970001  RH  051%=      5-min Rain = 0
KAM2 100333Z 20004KT 10/00 A3008 RMK A01 T00960001  RH  052%=      5-min Rain = 0
KAM2 100334Z 20004KT 10/00 A3008 RMK A01 T00950000  RH  052%=      5-min Rain = 0
KAM2 100335Z 20004KT 09/00 A3008 RMK A01 T00940000  RH  052%=      5-min Rain = 0
KAM2 100336Z 20004KT 09/00 A3008 RMK A01 T00920000  RH  053%=      5-min Rain = 0
KAM2 100337Z 20004KT 09/00 A3008 RMK A01 T00910000  RH  053%=      5-min Rain = 0
KAM2 100338Z 20004KT 09/00 A3008 RMK A01 T00890000  RH  054%=      5-min Rain = 0
KAM2 100339Z 19004KT 09/00 A3008 RMK A01 T008800-0  RH  054%=      5-min Rain = 0
KAM2 100340Z 20004KT 09/00 A3007 RMK A01 T008600-0  RH  055%=      5-min Rain = 0
KAM2 100341Z 19004KT 08/00 A3007 RMK A01 T008400-0  RH  055%=      5-min Rain = 0
KAM2 100342Z 19004KT 08/00 A3007 RMK A01 T00840000  RH  056%=      5-min Rain = 0
KAM2 100343Z 19004KT 08/00 A3007 RMK A01 T008300-0  RH  056%=      5-min Rain = 0
KAM2 100344Z 19004KT 08/00 A3007 RMK A01 T008300-0  RH  056%=      5-min Rain = 0
KAM2 100345Z 19005KT 08/M00 A3008 RMK A01 T00821001  RH  056%=      5-min Rain = 0
KAM2 100346Z 19005KT 08/M00 A3008 RMK A01 T00811001  RH  056%=      5-min Rain = 0
KAM2 100347Z 19005KT 08/M00 A3008 RMK A01 T00801001  RH  057%=      5-min Rain = 0
KAM2 100348Z 19005KT 08/M00 A3008 RMK A01 T00781001  RH  057%=      5-min Rain = 0
KAM2 100349Z 19005KT 08/M00 A3008 RMK A01 T00771001  RH  058%=      5-min Rain = 0
KAM2 100350Z 20005KT 07/M00 A3008 RMK A01 T00741001  RH  059%=      5-min Rain = 0
KAM2 100351Z 19005KT 07/M00 A3008 RMK A01 T00741001  RH  059%=      5-min Rain = 0
KAM2 100352Z 19004KT 07/M00 A3008 RMK A01 T00741001  RH  059%=      5-min Rain = 0
KAM2 100353Z 19005KT 07/M00 A3008 RMK A01 T00741001  RH  059%=      5-min Rain = 0
KAM2 100354Z 19005KT 07/M00 A3008 RMK A01 T00741002  RH  059%=      5-min Rain = 0
KAM2 100355Z 20005KT 07/M00 A3008 RMK A01 T00731002  RH  059%=      5-min Rain = 0
KAM2 100356Z 19005KT 07/M00 A3008 RMK A01 T00731002  RH  059%=      5-min Rain = 0
KAM2 100357Z 19005KT 07/M00 A3008 RMK A01 T00731001  RH  059%=      5-min Rain = 0
KAM2 100358Z 19005KT 07/M00 A3008 RMK A01 T00731001  RH  059%=      5-min Rain = 0
KAM2 100359Z 19005KT 07/M00 A3008 RMK A01 T00731001  RH  059%=      5-min Rain = 0
KAM2 100400Z 19004KT 07/M00 A3008 RMK A01 T00731001  RH  059%=      5-min Rain = 0
KAM2 100401Z 19004KT 07/M00 A3008 RMK A01 T00731001  RH  059%=      5-min Rain = 0
KAM2 100402Z 19004KT 07/00 A3008 RMK A01 T007400-0  RH  059%=      5-min Rain = 0
KAM2 100403Z 19004KT 08/00 A3008 RMK A01 T00750000  RH  059%=      5-min Rain = 0
KAM2 100404Z 19004KT 08/00 A3008 RMK A01 T00760001  RH  059%=      5-min Rain = 0
KAM2 100405Z 19004KT 08/00 A3008 RMK A01 T00760000  RH  059%=      5-min Rain = 0
KAM2 100406Z 19004KT 08/00 A3008 RMK A01 T00760000  RH  059%=      5-min Rain = 0
KAM2 100407Z 19003KT 08/00 A3008 RMK A01 T00760000  RH  059%=      5-min Rain = 0
KAM2 100408Z 18003KT 08/00 A3008 RMK A01 T00770001  RH  059%=      5-min Rain = 0
KAM2 100409Z 18003KT 08/00 A3008 RMK A01 T00780001  RH  058%=      5-min Rain = 0
KAM2 100410Z 18003KT 08/00 A3008 RMK A01 T00800001  RH  058%=      5-min Rain = 0
KAM2 100411Z 18003KT 08/00 A3008 RMK A01 T00810001  RH  057%=      5-min Rain = 0
KAM2 100412Z 18003KT 08/00 A3008 RMK A01 T00830000  RH  056%=      5-min Rain = 0
KAM2 100413Z 18003KT 08/00 A3008 RMK A01 T00840000  RH  055%=      5-min Rain = 0
KAM2 100414Z 18003KT 09/00 A3008 RMK A01 T00850000  RH  055%=      5-min Rain = 0
KAM2 100415Z 18003KT 09/00 A3008 RMK A01 T00850000  RH  055%=      5-min Rain = 0
KAM2 100416Z 18003KT 09/00 A3008 RMK A01 T00850000  RH  055%=      5-min Rain = 0
KAM2 100417Z 18004KT 09/00 A3008 RMK A01 T00850001  RH  055%=      5-min Rain = 0
KAM2 100418Z 17004KT 09/00 A3008 RMK A01 T00850000  RH  055%=      5-min Rain = 0
KAM2 100419Z 17004KT 09/00 A3008 RMK A01 T00850000  RH  055%=      5-min Rain = 0
KAM2 100420Z 17004KT 08/M00 A3008 RMK A01 T00831001  RH  056%=      5-min Rain = 0
KAM2 100421Z 17005KT 08/M00 A3008 RMK A01 T00801002  RH  056%=      5-min Rain = 0
KAM2 100422Z 17005KT 08/M00 A3008 RMK A01 T00781001  RH  057%=      5-min Rain = 0
KAM2 100423Z 17005KT 08/M00 A3008 RMK A01 T00771001  RH  058%=      5-min Rain = 0
KAM2 100424Z 17005KT 08/M00 A3008 RMK A01 T00771001  RH  058%=      5-min Rain = 0
KAM2 100425Z 18005KT 08/M00 A3008 RMK A01 T00771001  RH  058%=      5-min Rain = 0
KAM2 100426Z 17005KT 07/M00 A3008 RMK A01 T00741004  RH  058%=      5-min Rain = 0
KAM2 100427Z 18006KT 07/M01 A3008 RMK A01 T00691006  RH  059%=      5-min Rain = 0
KAM2 100428Z 18006KT 06/M01 A3008 RMK A01 T00641007  RH  060%=      5-min Rain = 0
KAM2 100429Z 19006KT 06/M01 A3008 RMK A01 T00601005  RH  063%=      5-min Rain = 0
KAM2 100430Z 19006KT 06/M01 A3008 RMK A01 T00581005  RH  064%=      5-min Rain = 0
KAM2 100431Z 19006KT 06/M00 A3008 RMK A01 T00571004  RH  065%=      5-min Rain = 0
KAM2 100432Z 19006KT 06/M00 A3008 RMK A01 T00571003  RH  065%=      5-min Rain = 0
KAM2 100433Z 20006KT 06/M00 A3008 RMK A01 T00571003  RH  065%=      5-min Rain = 0
KAM2 100434Z 20006KT 06/M00 A3008 RMK A01 T00581002  RH  065%=      5-min Rain = 0
KAM2 100435Z 20006KT 06/M00 A3008 RMK A01 T00591001  RH  065%=      5-min Rain = 0
KAM2 100436Z 20006KT 06/M00 A3008 RMK A01 T00611001  RH  065%=      5-min Rain = 0
KAM2 100437Z 20006KT 06/00 A3008 RMK A01 T00630000  RH  064%=      5-min Rain = 0
KAM2 100438Z 19005KT 06/00 A3008 RMK A01 T006400-0  RH  064%=      5-min Rain = 0
KAM2 100439Z 19006KT 06/M00 A3008 RMK A01 T00641001  RH  063%=      5-min Rain = 0
KAM2 100440Z 19005KT 06/M00 A3008 RMK A01 T00641001  RH  063%=      5-min Rain = 0
KAM2 100441Z 19006KT 06/00 A3008 RMK A01 T006400-0  RH  063%=      5-min Rain = 0
KAM2 100442Z 18005KT 07/00 A3008 RMK A01 T00650000  RH  063%=      5-min Rain = 0
KAM2 100443Z 18005KT 07/00 A3008 RMK A01 T00660000  RH  063%=      5-min Rain = 0
KAM2 100444Z 18004KT 07/00 A3008 RMK A01 T00670000  RH  063%=      5-min Rain = 0
KAM2 100445Z 18004KT 07/00 A3008 RMK A01 T00670000  RH  062%=      5-min Rain = 0
KAM2 100446Z 17004KT 07/00 A3008 RMK A01 T00670000  RH  062%=      5-min Rain = 0
KAM2 100447Z 17005KT 07/00 A3008 RMK A01 T00670000  RH  062%=      5-min Rain = 0
KAM2 100448Z 17005KT 07/00 A3008 RMK A01 T00680000  RH  062%=      5-min Rain = 0
KAM2 100449Z 17004KT 07/00 A3008 RMK A01 T00680000  RH  062%=      5-min Rain = 0
KAM2 100450Z 17005KT 07/00 A3008 RMK A01 T00670000  RH  062%=      5-min Rain = 0
KAM2 100451Z 16004KT 07/00 A3008 RMK A01 T00680000  RH  062%=      5-min Rain = 0
KAM2 100452Z 16004KT 07/00 A3008 RMK A01 T00680000  RH  062%=      5-min Rain = 0
KAM2 100453Z 17005KT 07/00 A3007 RMK A01 T00680000  RH  062%=      5-min Rain = 0
KAM2 100454Z 17005KT 07/00 A3007 RMK A01 T00680000  RH  062%=      5-min Rain = 0
KAM2 100455Z 18005KT 07/00 A3007 RMK A01 T00680000  RH  062%=      5-min Rain = 0
KAM2 100456Z 18005KT 07/00 A3007 RMK A01 T00680000  RH  062%=      5-min Rain = 0
KAM2 100457Z 18005KT 07/00 A3007 RMK A01 T00690000  RH  062%=      5-min Rain = 0
KAM2 100458Z 18005KT 07/00 A3007 RMK A01 T00680000  RH  062%=      5-min Rain = 0
KAM2 100459Z 18005KT 07/00 A3007 RMK A01 T006700-0  RH  062%=      5-min Rain = 0
KAM2 100500Z 19005KT 07/00 A3007 RMK A01 T006700-0  RH  062%=      5-min Rain = 0
KAM2 100501Z 19005KT 07/00 A3007 RMK A01 T006700-0  RH  062%=      5-min Rain = 0
KAM2 100502Z 19006KT 07/00 A3007 RMK A01 T006700-0  RH  062%=      5-min Rain = 0
KAM2 100503Z 19005KT 07/00 A3007 RMK A01 T006700-0  RH  062%=      5-min Rain = 0
KAM2 100504Z 19006KT 07/00 A3007 RMK A01 T006700-0  RH  062%=      5-min Rain = 0
KAM2 100505Z 19006KT 07/00 A3007 RMK A01 T006700-0  RH  062%=      5-min Rain = 0
KAM2 100506Z 19006KT 07/00 A3007 RMK A01 T00660000  RH  063%=      5-min Rain = 0
KAM2 100507Z 19006KT 07/00 A3007 RMK A01 T00670000  RH  063%=      5-min Rain = 0
KAM2 100508Z 19006KT 07/00 A3007 RMK A01 T00670000  RH  062%=      5-min Rain = 0
KAM2 100509Z 19006KT 07/00 A3007 RMK A01 T00670001  RH  062%=      5-min Rain = 0
KAM2 100510Z 19006KT 07/00 A3007 RMK A01 T00660001  RH  063%=      5-min Rain = 0
KAM2 100511Z 19006KT 07/00 A3007 RMK A01 T00650000  RH  063%=      5-min Rain = 0
KAM2 100512Z 19006KT 06/00 A3007 RMK A01 T00630000  RH  064%=      5-min Rain = 0
KAM2 100513Z 19006KT 06/00 A3007 RMK A01 T00620001  RH  065%=      5-min Rain = 0
KAM2 100514Z 19006KT 06/00 A3007 RMK A01 T00620001  RH  065%=      5-min Rain = 0
KAM2 100515Z 19005KT 06/00 A3007 RMK A01 T00620001  RH  065%=      5-min Rain = 0
KAM2 100516Z 19005KT 06/00 A3007 RMK A01 T00610001  RH  065%=      5-min Rain = 0
KAM2 100517Z 19005KT 06/00 A3006 RMK A01 T00610001  RH  065%=      5-min Rain = 0
KAM2 100518Z 19005KT 06/00 A3006 RMK A01 T00610001  RH  065%=      5-min Rain = 0
KAM2 100519Z 19005KT 06/00 A3006 RMK A01 T00610001  RH  065%=      5-min Rain = 0
KAM2 100520Z 19005KT 06/00 A3006 RMK A01 T00610001  RH  065%=      5-min Rain = 0
KAM2 100521Z 19005KT 06/00 A3006 RMK A01 T00610001  RH  065%=      5-min Rain = 0
KAM2 100522Z 19005KT 06/00 A3006 RMK A01 T00610001  RH  065%=      5-min Rain = 0
KAM2 100523Z 19005KT 06/00 A3006 RMK A01 T00600000  RH  065%=      5-min Rain = 0
KAM2 100524Z 19005KT 06/00 A3006 RMK A01 T00590000  RH  066%=      5-min Rain = 0
KAM2 100525Z 19005KT 06/00 A3006 RMK A01 T005800-0  RH  066%=      5-min Rain = 0
KAM2 100526Z 19005KT 06/00 A3006 RMK A01 T00580000  RH  066%=      5-min Rain = 0
KAM2 100527Z 19005KT 06/00 A3006 RMK A01 T00570000  RH  067%=      5-min Rain = 0
KAM2 100528Z 18005KT 06/00 A3006 RMK A01 T00570000  RH  067%=      5-min Rain = 0
KAM2 100529Z 18005KT 06/00 A3006 RMK A01 T00570000  RH  067%=      5-min Rain = 0
KAM2 100530Z 18006KT 06/00 A3006 RMK A01 T00560000  RH  067%=      5-min Rain = 0
KAM2 100531Z 18006KT 06/00 A3006 RMK A01 T00560000  RH  067%=      5-min Rain = 0
KAM2 100532Z 18006KT 06/00 A3006 RMK A01 T00560000  RH  068%=      5-min Rain = 0
KAM2 100533Z 18006KT 06/00 A3006 RMK A01 T00560000  RH  068%=      5-min Rain = 0
KAM2 100534Z 18006KT 06/00 A3006 RMK A01 T00560000  RH  067%=      5-min Rain = 0
KAM2 100535Z 19005KT 06/00 A3006 RMK A01 T00560000  RH  067%=      5-min Rain = 0
KAM2 100536Z 19006KT 06/00 A3006 RMK A01 T00570001  RH  067%=      5-min Rain = 0
KAM2 100537Z 19005KT 06/00 A3006 RMK A01 T00590001  RH  066%=      5-min Rain = 0
KAM2 100538Z 19005KT 06/00 A3006 RMK A01 T00610001  RH  065%=      5-min Rain = 0
KAM2 100539Z 19004KT 06/00 A3006 RMK A01 T00620001  RH  065%=      5-min Rain = 0
KAM2 100540Z 19004KT 06/00 A3006 RMK A01 T00620001  RH  065%=      5-min Rain = 0
KAM2 100541Z 19003KT 06/00 A3006 RMK A01 T00630001  RH  064%=      5-min Rain = 0
KAM2 100542Z 19003KT 06/00 A3006 RMK A01 T00640001  RH  064%=      5-min Rain = 0
KAM2 100543Z 18004KT 07/00 A3006 RMK A01 T00650001  RH  064%=      5-min Rain = 0
KAM2 100544Z 18004KT 07/00 A3006 RMK A01 T00650001  RH  064%=      5-min Rain = 0
KAM2 100545Z 18004KT 06/00 A3006 RMK A01 T00640000  RH  064%=      5-min Rain = 0
KAM2 100546Z 17005KT 06/00 A3006 RMK A01 T006300-0  RH  064%=      5-min Rain = 0
KAM2 100547Z 18004KT 06/00 A3006 RMK A01 T006200-0  RH  064%=      5-min Rain = 0
KAM2 100548Z 17004KT 06/00 A3006 RMK A01 T006100-0  RH  065%=      5-min Rain = 0
KAM2 100549Z 17004KT 06/00 A3006 RMK A01 T006000-0  RH  065%=      5-min Rain = 0
KAM2 100550Z 17005KT 06/00 A3006 RMK A01 T006000-0  RH  065%=      5-min Rain = 0
KAM2 100551Z 17004KT 06/00 A3005 RMK A01 T006000-0  RH  065%=      5-min Rain = 0
KAM2 100552Z 16004KT 06/M00 A3005 RMK A01 T00591001  RH  065%=      5-min Rain = 0
KAM2 100553Z 16004KT 06/M00 A3005 RMK A01 T00571001  RH  066%=      5-min Rain = 0
KAM2 100554Z 16004KT 06/M00 A3005 RMK A01 T00561001  RH  067%=      5-min Rain = 0
KAM2 100555Z 16005KT 06/M00 A3005 RMK A01 T00561001  RH  067%=      5-min Rain = 0
KAM2 100556Z 16004KT 06/M00 A3005 RMK A01 T00561001  RH  067%=      5-min Rain = 0
KAM2 100557Z 16004KT 06/00 A3005 RMK A01 T005600-0  RH  067%=      5-min Rain = 0
KAM2 100558Z 17004KT 06/00 A3005 RMK A01 T005600-0  RH  067%=      5-min Rain = 0
KAM2 100559Z 17004KT 06/00 A3005 RMK A01 T005700-0  RH  067%=      5-min Rain = 0

Page generated in 0.0707 seconds.